Time,TemperatureF,DewpointF,PressureIn,WindDirection,WindDirectionDegrees,WindSpeedMPH,WindSpeedGustMPH,Humidity,HourlyPrecipIn,Conditions,Clouds,dailyrainin,SoftwareType,DateUTC
2013-06-17 00:00:00,78.7,74.1,29.91,ESE,116,1.0,8.0,86,0.00,,,0.00,WeatherCatV1.24B11,2013-06-17 05:00:00,
2013-06-17 00:01:00,78.7,73.8,29.91,ESE,111,0.0,2.0,85,0.00,,,0.00,WeatherCatV1.15B25,2013-06-17 05:01:00,
2013-06-17 00:05:00,78.5,74.0,29.91,ESE,120,1.0,4.0,86,0.00,,,0.00,WeatherCatV1.24B11,2013-06-17 05:05:00,
2013-06-17 00:06:00,78.7,74.1,29.91,ESE,105,1.0,6.0,86,0.00,,,0.00,WeatherCatV1.15B25,2013-06-17 05:06:00,
2013-06-17 00:10:00,78.4,73.8,29.91,ESE,117,0.0,0.0,86,0.00,,,0.00,WeatherCatV1.24B11,2013-06-17 05:10:00,
2013-06-17 00:11:00,78.7,74.1,29.91,ESE,117,0.0,8.0,86,0.00,,,0.00,WeatherCatV1.15B25,2013-06-17 05:11:00,
2013-06-17 00:15:00,78.3,73.8,29.91,ESE,117,0.0,2.0,86,0.00,,,0.00,WeatherCatV1.24B11,2013-06-17 05:15:00,
2013-06-17 00:16:00,78.5,73.9,29.91,East,98,5.0,5.0,86,0.00,,,0.00,WeatherCatV1.15B25,2013-06-17 05:16:00,
2013-06-17 00:20:00,78.2,74.0,29.91,ESE,112,0.0,4.0,87,0.00,,,0.00,WeatherCatV1.24B11,2013-06-17 05:20:00,
2013-06-17 00:21:00,78.4,73.9,29.90,ESE,117,0.0,1.0,86,0.00,,,0.00,WeatherCatV1.15B25,2013-06-17 05:21:00,
2013-06-17 00:25:00,78.0,73.8,29.91,ESE,102,0.0,0.0,87,0.00,,,0.00,WeatherCatV1.24B11,2013-06-17 05:25:00,
2013-06-17 00:26:00,78.3,73.8,29.91,ESE,115,0.0,2.0,86,0.00,,,0.00,WeatherCatV1.15B25,2013-06-17 05:26:00,
2013-06-17 00:30:00,77.9,73.7,29.91,ESE,122,1.0,1.0,87,0.00,,,0.00,WeatherCatV1.24B11,2013-06-17 05:30:00,
2013-06-17 00:31:00,78.2,74.0,29.91,ESE,115,0.0,2.0,87,0.00,,,0.00,WeatherCatV1.15B25,2013-06-17 05:31:00,
2013-06-17 00:35:00,77.8,73.6,29.90,SE,136,1.0,0.0,87,0.00,,,0.00,WeatherCatV1.24B11,2013-06-17 05:35:00,
2013-06-17 00:36:00,78.0,73.8,29.91,East,98,0.0,3.0,87,0.00,,,0.00,WeatherCatV1.15B25,2013-06-17 05:36:00,
2013-06-17 00:40:00,77.8,73.6,29.91,SE,132,1.0,5.0,87,0.00,,,0.00,WeatherCatV1.24B11,2013-06-17 05:40:00,
2013-06-17 00:41:00,77.9,73.7,29.91,SSE,150,0.0,3.0,87,0.00,,,0.00,WeatherCatV1.15B25,2013-06-17 05:41:00,
2013-06-17 00:45:00,77.7,73.8,29.91,ESE,121,1.0,0.0,88,0.00,,,0.00,WeatherCatV1.24B11,2013-06-17 05:45:00,
2013-06-17 00:46:00,77.8,73.6,29.91,SE,138,0.0,2.0,87,0.00,,,0.00,WeatherCatV1.15B25,2013-06-17 05:46:00,
2013-06-17 00:50:00,77.7,73.8,29.91,ESE,120,1.0,5.0,88,0.00,,,0.00,WeatherCatV1.24B11,2013-06-17 05:50:00,
2013-06-17 00:51:00,77.8,73.6,29.91,SE,140,0.0,4.0,87,0.00,,,0.00,WeatherCatV1.15B25,2013-06-17 05:51:00,
2013-06-17 00:55:00,77.6,73.8,29.91,ESE,116,1.0,0.0,88,0.00,,,0.00,WeatherCatV1.24B11,2013-06-17 05:55:00,
2013-06-17 00:56:00,77.8,73.9,29.91,SE,133,0.0,5.0,88,0.00,,,0.00,WeatherCatV1.15B25,2013-06-17 05:56:00,
2013-06-17 01:00:00,77.7,73.8,29.91,SE,145,1.0,2.0,88,0.00,,,0.00,WeatherCatV1.24B11,2013-06-17 06:00:00,
2013-06-17 01:01:00,77.7,73.8,29.90,East,94,0.0,5.0,88,0.00,,,0.00,WeatherCatV1.15B25,2013-06-17 06:01:00,
2013-06-17 01:05:00,77.6,73.8,29.90,SE,134,1.0,7.0,88,0.00,,,0.00,WeatherCatV1.24B11,2013-06-17 06:05:00,
2013-06-17 01:10:00,77.6,73.8,29.91,ESE,121,1.0,5.0,88,0.00,,,0.00,WeatherCatV1.24B11,2013-06-17 06:10:00,
2013-06-17 01:15:00,77.5,73.7,29.91,ESE,119,1.0,2.0,88,0.00,,,0.00,WeatherCatV1.24B11,2013-06-17 06:15:00,
2013-06-17 01:20:00,77.5,73.7,29.91,ESE,107,0.0,2.0,88,0.00,,,0.00,WeatherCatV1.24B11,2013-06-17 06:20:00,
2013-06-17 01:25:00,77.4,73.9,29.91,ESE,103,0.0,5.0,89,0.00,,,0.00,WeatherCatV1.24B11,2013-06-17 06:25:00,
2013-06-17 01:30:00,77.4,73.9,29.91,ESE,105,0.0,5.0,89,0.00,,,0.00,WeatherCatV1.24B11,2013-06-17 06:30:00,
2013-06-17 01:31:00,77.5,73.7,29.91,ESE,103,0.0,0.0,88,0.00,,,0.00,WeatherCatV1.15B25,2013-06-17 06:31:00,
2013-06-17 01:35:00,77.4,73.9,29.91,East,93,0.0,5.0,89,0.00,,,0.00,WeatherCatV1.24B11,2013-06-17 06:35:00,
2013-06-17 01:36:00,77.4,73.9,29.91,ESE,102,0.0,5.0,89,0.00,,,0.00,WeatherCatV1.15B25,2013-06-17 06:36:00,
2013-06-17 01:40:00,77.4,73.9,29.91,ESE,110,1.0,5.0,89,0.00,,,0.00,WeatherCatV1.24B11,2013-06-17 06:40:00,
2013-06-17 01:41:00,77.4,73.9,29.91,ESE,106,0.0,0.0,89,0.00,,,0.00,WeatherCatV1.15B25,2013-06-17 06:41:00,
2013-06-17 01:45:00,77.4,73.9,29.91,ESE,115,0.0,1.0,89,0.00,,,0.00,WeatherCatV1.24B11,2013-06-17 06:45:00,
2013-06-17 01:46:00,77.4,73.9,29.91,ESE,115,1.0,5.0,89,0.00,,,0.00,WeatherCatV1.15B25,2013-06-17 06:46:00,
2013-06-17 01:50:00,77.3,73.8,29.91,ESE,114,1.0,4.0,89,0.00,,,0.00,WeatherCatV1.24B11,2013-06-17 06:50:00,
2013-06-17 01:51:00,77.4,73.9,29.91,ESE,114,0.0,1.0,89,0.00,,,0.00,WeatherCatV1.15B25,2013-06-17 06:51:00,
2013-06-17 01:55:00,77.3,73.8,29.91,ESE,105,1.0,1.0,89,0.00,,,0.00,WeatherCatV1.24B11,2013-06-17 06:55:00,
2013-06-17 01:56:00,77.3,73.8,29.91,ESE,117,0.0,5.0,89,0.00,,,0.00,WeatherCatV1.15B25,2013-06-17 06:56:00,
2013-06-17 02:00:00,77.3,73.8,29.91,ESE,119,1.0,1.0,89,0.00,,,0.00,WeatherCatV1.24B11,2013-06-17 07:00:00,
2013-06-17 02:01:00,77.4,73.9,29.91,ESE,114,0.0,4.0,89,0.00,,,0.00,WeatherCatV1.15B25,2013-06-17 07:01:00,
2013-06-17 02:05:00,77.3,73.8,29.90,SE,132,0.0,0.0,89,0.00,,,0.00,WeatherCatV1.24B11,2013-06-17 07:05:00,
2013-06-17 02:06:00,77.3,73.8,29.91,East,93,5.0,5.0,89,0.00,,,0.00,WeatherCatV1.15B25,2013-06-17 07:06:00,
2013-06-17 02:10:00,77.3,73.8,29.91,SE,132,0.0,1.0,89,0.00,,,0.00,WeatherCatV1.24B11,2013-06-17 07:10:00,
2013-06-17 02:15:00,77.4,73.9,29.91,SE,130,0.0,0.0,89,0.00,,,0.00,WeatherCatV1.24B11,2013-06-17 07:15:00,
2013-06-17 02:16:00,77.3,73.8,29.90,SE,133,0.0,4.0,89,0.00,,,0.00,WeatherCatV1.15B25,2013-06-17 07:16:00,
2013-06-17 02:20:00,77.4,73.9,29.91,SE,127,0.0,2.0,89,0.00,,,0.00,WeatherCatV1.24B11,2013-06-17 07:20:00,
2013-06-17 02:21:00,77.3,73.8,29.90,SE,132,0.0,1.0,89,0.00,,,0.00,WeatherCatV1.15B25,2013-06-17 07:21:00,
2013-06-17 02:25:00,77.5,74.0,29.91,SE,131,0.0,7.0,89,0.00,,,0.00,WeatherCatV1.24B11,2013-06-17 07:25:00,
2013-06-17 02:26:00,77.3,73.8,29.91,SE,126,0.0,0.0,89,0.00,,,0.00,WeatherCatV1.15B25,2013-06-17 07:26:00,
2013-06-17 02:30:00,77.5,74.0,29.91,ESE,112,1.0,5.0,89,0.00,,,0.00,WeatherCatV1.24B11,2013-06-17 07:30:00,
2013-06-17 02:31:00,77.4,73.9,29.91,SE,126,0.0,2.0,89,0.00,,,0.00,WeatherCatV1.15B25,2013-06-17 07:31:00,
2013-06-17 02:35:00,77.5,74.0,29.90,ESE,122,1.0,1.0,89,0.00,,,0.00,WeatherCatV1.24B11,2013-06-17 07:35:00,
2013-06-17 02:36:00,77.4,73.9,29.91,SE,141,0.0,7.0,89,0.00,,,0.00,WeatherCatV1.15B25,2013-06-17 07:36:00,
2013-06-17 02:40:00,77.4,73.9,29.90,SE,133,1.0,1.0,89,0.00,,,0.00,WeatherCatV1.24B11,2013-06-17 07:40:00,
2013-06-17 02:45:00,77.4,73.9,29.91,SE,130,1.0,2.0,89,0.00,,,0.00,WeatherCatV1.24B11,2013-06-17 07:45:00,
2013-06-17 02:48:00,77.4,73.9,29.90,ESE,115,1.0,6.0,89,0.00,,,0.00,WeatherCatV1.15B25,2013-06-17 07:48:00,
2013-06-17 02:50:00,77.4,73.9,29.91,SE,127,0.0,0.0,89,0.00,,,0.00,WeatherCatV1.24B11,2013-06-17 07:50:00,
2013-06-17 02:53:00,77.4,73.9,29.90,ESE,122,3.0,5.0,89,0.00,,,0.00,WeatherCatV1.15B25,2013-06-17 07:53:00,
2013-06-17 02:55:00,77.4,73.9,29.91,SE,127,0.0,1.0,89,0.00,,,0.00,WeatherCatV1.24B11,2013-06-17 07:55:00,
2013-06-17 02:57:00,77.4,73.9,29.91,SE,126,0.0,2.0,89,0.00,,,0.00,WeatherCatV1.15B25,2013-06-17 07:57:00,
2013-06-17 03:00:00,77.4,73.9,29.91,SE,128,0.0,0.0,89,0.00,,,0.00,WeatherCatV1.24B11,2013-06-17 08:00:00,
2013-06-17 03:02:00,77.4,73.9,29.91,SE,125,0.0,0.0,89,0.00,,,0.00,WeatherCatV1.15B25,2013-06-17 08:02:00,
2013-06-17 03:05:00,77.3,73.8,29.91,SE,129,0.0,1.0,89,0.00,,,0.00,WeatherCatV1.24B11,2013-06-17 08:05:00,
2013-06-17 03:07:00,77.4,73.9,29.91,SE,129,0.0,2.0,89,0.00,,,0.00,WeatherCatV1.15B25,2013-06-17 08:07:00,
2013-06-17 03:10:00,77.3,73.8,29.90,SE,129,0.0,1.0,89,0.00,,,0.00,WeatherCatV1.24B11,2013-06-17 08:10:00,
2013-06-17 03:12:00,77.4,73.9,29.91,SE,129,0.0,0.0,89,0.00,,,0.00,WeatherCatV1.15B25,2013-06-17 08:12:00,
2013-06-17 03:15:00,77.3,73.8,29.91,SE,129,0.0,0.0,89,0.00,,,0.00,WeatherCatV1.24B11,2013-06-17 08:15:00,
2013-06-17 03:17:00,77.3,73.8,29.91,SE,129,0.0,2.0,89,0.00,,,0.00,WeatherCatV1.15B25,2013-06-17 08:17:00,
2013-06-17 03:20:00,77.3,73.8,29.90,SE,130,0.0,6.0,89,0.00,,,0.00,WeatherCatV1.24B11,2013-06-17 08:20:00,
2013-06-17 03:22:00,77.3,73.8,29.90,SE,129,0.0,1.0,89,0.00,,,0.00,WeatherCatV1.15B25,2013-06-17 08:22:00,
2013-06-17 03:25:00,77.2,73.7,29.90,SE,127,1.0,3.0,89,0.00,,,0.00,WeatherCatV1.24B11,2013-06-17 08:25:00,
2013-06-17 03:27:00,77.3,73.8,29.91,SE,130,0.0,0.0,89,0.00,,,0.00,WeatherCatV1.15B25,2013-06-17 08:27:00,
2013-06-17 03:30:00,77.1,73.6,29.90,SE,133,1.0,4.0,89,0.00,,,0.00,WeatherCatV1.24B11,2013-06-17 08:30:00,
2013-06-17 03:34:00,77.2,73.7,29.90,SE,136,0.0,6.0,89,0.00,,,0.00,WeatherCatV1.15B25,2013-06-17 08:34:00,
2013-06-17 03:35:00,77.2,73.7,29.90,SE,133,1.0,0.0,89,0.00,,,0.00,WeatherCatV1.24B11,2013-06-17 08:35:00,
2013-06-17 03:39:00,77.2,73.7,29.90,SE,144,3.0,6.0,89,0.00,,,0.00,WeatherCatV1.15B25,2013-06-17 08:39:00,
2013-06-17 03:40:00,77.1,73.6,29.89,ESE,105,1.0,0.0,89,0.00,,,0.00,WeatherCatV1.24B11,2013-06-17 08:40:00,
2013-06-17 03:44:00,77.1,73.6,29.90,SSE,147,0.0,3.0,89,0.00,,,0.00,WeatherCatV1.15B25,2013-06-17 08:44:00,
2013-06-17 03:45:00,77.1,73.6,29.89,ESE,112,1.0,4.0,89,0.00,,,0.00,WeatherCatV1.24B11,2013-06-17 08:45:00,
2013-06-17 03:49:00,77.2,73.7,29.90,East,94,0.0,0.0,89,0.00,,,0.00,WeatherCatV1.15B25,2013-06-17 08:49:00,
2013-06-17 03:50:00,77.1,73.6,29.89,SE,125,1.0,5.0,89,0.00,,,0.00,WeatherCatV1.24B11,2013-06-17 08:50:00,
2013-06-17 03:54:00,77.1,73.6,29.89,ESE,111,2.0,8.0,89,0.00,,,0.00,WeatherCatV1.15B25,2013-06-17 08:54:00,
2013-06-17 03:55:00,77.2,73.4,29.89,SE,140,1.0,5.0,88,0.00,,,0.00,WeatherCatV1.24B11,2013-06-17 08:55:00,
2013-06-17 03:59:00,77.1,73.6,29.89,SE,145,3.0,5.0,89,0.00,,,0.00,WeatherCatV1.15B25,2013-06-17 08:59:00,
2013-06-17 04:00:00,77.2,73.4,29.89,SSE,153,1.0,4.0,88,0.00,,,0.00,WeatherCatV1.24B11,2013-06-17 09:00:00,
2013-06-17 04:04:00,77.2,73.7,29.89,SE,132,0.0,3.0,89,0.00,,,0.00,WeatherCatV1.15B25,2013-06-17 09:04:00,
2013-06-17 04:05:00,77.3,73.4,29.89,SE,145,1.0,1.0,88,0.00,,,0.00,WeatherCatV1.24B11,2013-06-17 09:05:00,
2013-06-17 04:09:00,77.2,73.4,29.89,SSE,159,0.0,5.0,88,0.00,,,0.00,WeatherCatV1.15B25,2013-06-17 09:09:00,
2013-06-17 04:10:00,77.3,73.4,29.88,SSE,153,1.0,0.0,88,0.00,,,0.00,WeatherCatV1.24B11,2013-06-17 09:10:00,
2013-06-17 04:14:00,77.2,73.4,29.89,SSE,152,4.0,6.0,88,0.00,,,0.00,WeatherCatV1.15B25,2013-06-17 09:14:00,
2013-06-17 04:15:00,77.4,73.6,29.89,SE,136,0.0,1.0,88,0.00,,,0.00,WeatherCatV1.24B11,2013-06-17 09:15:00,
2013-06-17 04:19:00,77.3,73.5,29.89,SSE,161,1.0,2.0,88,0.00,,,0.00,WeatherCatV1.15B25,2013-06-17 09:19:00,
2013-06-17 04:20:00,77.4,73.6,29.88,SE,145,1.0,0.0,88,0.00,,,0.00,WeatherCatV1.24B11,2013-06-17 09:20:00,
2013-06-17 04:24:00,77.4,73.6,29.88,SE,126,1.0,1.0,88,0.00,,,0.00,WeatherCatV1.15B25,2013-06-17 09:24:00,
2013-06-17 04:25:00,77.4,73.6,29.89,SSE,148,1.0,2.0,88,0.00,,,0.00,WeatherCatV1.24B11,2013-06-17 09:25:00,
2013-06-17 04:29:00,77.4,73.6,29.89,SSE,155,3.0,3.0,88,0.00,,,0.00,WeatherCatV1.15B25,2013-06-17 09:29:00,
2013-06-17 04:30:00,77.4,73.6,29.89,SE,136,0.0,0.0,88,0.00,,,0.00,WeatherCatV1.24B11,2013-06-17 09:30:00,
2013-06-17 04:34:00,77.4,73.6,29.89,SE,144,0.0,4.0,88,0.00,,,0.00,WeatherCatV1.15B25,2013-06-17 09:34:00,
2013-06-17 04:35:00,77.4,73.6,29.88,SE,134,0.0,3.0,88,0.00,,,0.00,WeatherCatV1.24B11,2013-06-17 09:35:00,
2013-06-17 04:39:00,77.4,73.6,29.88,SE,138,0.0,4.0,88,0.00,,,0.00,WeatherCatV1.15B25,2013-06-17 09:39:00,
2013-06-17 04:40:00,77.4,73.6,29.89,SE,146,1.0,2.0,88,0.00,,,0.00,WeatherCatV1.24B11,2013-06-17 09:40:00,
2013-06-17 04:44:00,77.4,73.6,29.88,SE,138,0.0,6.0,88,0.00,,,0.00,WeatherCatV1.15B25,2013-06-17 09:44:00,
2013-06-17 04:45:00,77.4,73.6,29.89,SSE,167,1.0,3.0,88,0.00,,,0.00,WeatherCatV1.24B11,2013-06-17 09:45:00,
2013-06-17 04:49:00,77.4,73.6,29.88,SSE,147,0.0,4.0,88,0.00,,,0.00,WeatherCatV1.15B25,2013-06-17 09:49:00,
2013-06-17 04:50:00,77.4,73.6,29.89,SSE,167,1.0,3.0,88,0.00,,,0.00,WeatherCatV1.24B11,2013-06-17 09:50:00,
2013-06-17 04:54:00,77.4,73.6,29.89,South,191,0.0,9.0,88,0.00,,,0.00,WeatherCatV1.15B25,2013-06-17 09:54:00,
2013-06-17 04:55:00,77.4,73.6,29.90,SSE,159,0.0,1.0,88,0.00,,,0.00,WeatherCatV1.24B11,2013-06-17 09:55:00,
2013-06-17 04:59:00,77.4,73.6,29.89,South,174,0.0,4.0,88,0.00,,,0.00,WeatherCatV1.15B25,2013-06-17 09:59:00,
2013-06-17 05:00:00,77.4,73.6,29.89,SSE,152,0.0,4.0,88,0.00,,,0.00,WeatherCatV1.24B11,2013-06-17 10:00:00,
2013-06-17 05:04:00,77.4,73.6,29.89,SSE,157,0.0,0.0,88,0.00,,,0.00,WeatherCatV1.15B25,2013-06-17 10:04:00,
2013-06-17 05:05:00,77.3,73.4,29.89,SSE,153,0.0,0.0,88,0.00,,,0.00,WeatherCatV1.24B11,2013-06-17 10:05:00,
2013-06-17 05:09:00,77.4,73.6,29.90,SSE,150,0.0,0.0,88,0.00,,,0.00,WeatherCatV1.15B25,2013-06-17 10:09:00,
2013-06-17 05:10:00,77.3,73.4,29.90,SSE,153,0.0,3.0,88,0.00,,,0.00,WeatherCatV1.24B11,2013-06-17 10:10:00,
2013-06-17 05:14:00,77.3,73.5,29.89,SSE,153,0.0,1.0,88,0.00,,,0.00,WeatherCatV1.15B25,2013-06-17 10:14:00,
2013-06-17 05:15:00,77.3,73.4,29.90,SSE,153,0.0,1.0,88,0.00,,,0.00,WeatherCatV1.24B11,2013-06-17 10:15:00,
2013-06-17 05:19:00,77.3,73.5,29.90,SSE,153,0.0,0.0,88,0.00,,,0.00,WeatherCatV1.15B25,2013-06-17 10:19:00,
2013-06-17 05:20:00,77.3,73.4,29.90,SSE,153,0.0,1.0,88,0.00,,,0.00,WeatherCatV1.24B11,2013-06-17 10:20:00,
2013-06-17 05:24:00,77.3,73.5,29.90,SSE,152,0.0,3.0,88,0.00,,,0.00,WeatherCatV1.15B25,2013-06-17 10:24:00,
2013-06-17 05:25:00,77.3,73.4,29.90,SSE,153,0.0,0.0,88,0.00,,,0.00,WeatherCatV1.24B11,2013-06-17 10:25:00,
2013-06-17 05:29:00,77.3,73.5,29.90,SSE,153,0.0,1.0,88,0.00,,,0.00,WeatherCatV1.15B25,2013-06-17 10:29:00,
2013-06-17 05:30:00,77.2,73.4,29.90,SSE,153,0.0,0.0,88,0.00,,,0.00,WeatherCatV1.24B11,2013-06-17 10:30:00,
2013-06-17 05:34:00,77.3,73.5,29.90,SSE,153,0.0,1.0,88,0.00,,,0.00,WeatherCatV1.15B25,2013-06-17 10:34:00,
2013-06-17 05:35:00,77.2,73.4,29.90,SSE,152,0.0,1.0,88,0.00,,,0.00,WeatherCatV1.24B11,2013-06-17 10:35:00,
2013-06-17 05:39:00,77.2,73.4,29.90,SSE,152,0.0,1.0,88,0.00,,,0.00,WeatherCatV1.15B25,2013-06-17 10:39:00,
2013-06-17 05:40:00,77.1,73.6,29.90,SE,146,0.0,1.0,89,0.00,,,0.00,WeatherCatV1.24B11,2013-06-17 10:40:00,
2013-06-17 05:44:00,77.2,73.4,29.90,SSE,152,0.0,0.0,88,0.00,,,0.00,WeatherCatV1.15B25,2013-06-17 10:44:00,
2013-06-17 05:45:00,77.1,73.6,29.91,SE,145,0.0,1.0,89,0.00,,,0.00,WeatherCatV1.24B11,2013-06-17 10:45:00,
2013-06-17 05:49:00,77.2,73.4,29.90,SE,142,0.0,1.0,88,0.00,,,0.00,WeatherCatV1.15B25,2013-06-17 10:49:00,
2013-06-17 05:50:00,77.1,73.6,29.91,SE,145,0.0,0.0,89,0.00,,,0.00,WeatherCatV1.24B11,2013-06-17 10:50:00,
2013-06-17 05:54:00,77.1,73.6,29.91,SE,145,0.0,3.0,89,0.00,,,0.00,WeatherCatV1.15B25,2013-06-17 10:54:00,
2013-06-17 05:55:00,77.1,73.6,29.91,SE,145,0.0,1.0,89,0.00,,,0.00,WeatherCatV1.24B11,2013-06-17 10:55:00,
2013-06-17 05:59:00,77.1,73.6,29.91,SE,145,0.0,2.0,89,0.00,,,0.00,WeatherCatV1.15B25,2013-06-17 10:59:00,
2013-06-17 06:00:00,77.1,73.6,29.91,SE,145,0.0,0.0,89,0.00,,,0.00,WeatherCatV1.24B11,2013-06-17 11:00:00,
2013-06-17 06:04:00,77.1,73.6,29.91,SE,145,0.0,0.0,89,0.00,,,0.00,WeatherCatV1.15B25,2013-06-17 11:04:00,
2013-06-17 06:05:00,77.0,73.5,29.91,SE,145,0.0,0.0,89,0.00,,,0.00,WeatherCatV1.24B11,2013-06-17 11:05:00,
2013-06-17 06:09:00,77.1,73.6,29.91,SE,145,0.0,0.0,89,0.00,,,0.00,WeatherCatV1.15B25,2013-06-17 11:09:00,
2013-06-17 06:10:00,76.9,73.4,29.91,SE,145,0.0,0.0,89,0.00,,,0.00,WeatherCatV1.24B11,2013-06-17 11:10:00,
2013-06-17 06:14:00,77.0,73.5,29.91,SE,145,0.0,1.0,89,0.00,,,0.00,WeatherCatV1.15B25,2013-06-17 11:14:00,
2013-06-17 06:15:00,76.9,73.4,29.91,SE,145,0.0,0.0,89,0.00,,,0.00,WeatherCatV1.24B11,2013-06-17 11:15:00,
2013-06-17 06:19:00,77.0,73.5,29.91,SE,145,0.0,0.0,89,0.00,,,0.00,WeatherCatV1.15B25,2013-06-17 11:19:00,
2013-06-17 06:20:00,76.9,73.4,29.91,SE,145,0.0,0.0,89,0.00,,,0.00,WeatherCatV1.24B11,2013-06-17 11:20:00,
2013-06-17 06:24:00,76.9,73.4,29.91,SE,145,0.0,0.0,89,0.00,,,0.00,WeatherCatV1.15B25,2013-06-17 11:24:00,
2013-06-17 06:25:00,76.9,73.4,29.91,SE,145,0.0,0.0,89,0.00,,,0.00,WeatherCatV1.24B11,2013-06-17 11:25:00,
2013-06-17 06:29:00,76.9,73.4,29.91,SE,145,0.0,0.0,89,0.00,,,0.00,WeatherCatV1.15B25,2013-06-17 11:29:00,
2013-06-17 06:30:00,76.9,73.4,29.91,SE,145,0.0,3.0,89,0.00,,,0.00,WeatherCatV1.24B11,2013-06-17 11:30:00,
2013-06-17 06:34:00,76.9,73.4,29.91,SE,145,0.0,0.0,89,0.00,,,0.00,WeatherCatV1.15B25,2013-06-17 11:34:00,
2013-06-17 06:35:00,76.9,73.4,29.91,SE,144,0.0,0.0,89,0.00,,,0.00,WeatherCatV1.24B11,2013-06-17 11:35:00,
2013-06-17 06:39:00,76.9,73.4,29.91,SE,146,0.0,4.0,89,0.00,,,0.00,WeatherCatV1.15B25,2013-06-17 11:39:00,
2013-06-17 06:40:00,77.0,73.5,29.91,SE,144,0.0,0.0,89,0.00,,,0.00,WeatherCatV1.24B11,2013-06-17 11:40:00,
2013-06-17 06:44:00,76.9,73.4,29.91,SE,144,0.0,0.0,89,0.00,,,0.00,WeatherCatV1.15B25,2013-06-17 11:44:00,
2013-06-17 06:45:00,77.0,73.5,29.92,SE,144,0.0,4.0,89,0.00,,,0.00,WeatherCatV1.24B11,2013-06-17 11:45:00,
2013-06-17 06:49:00,76.9,73.4,29.91,SE,144,2.0,2.0,89,0.00,,,0.00,WeatherCatV1.15B25,2013-06-17 11:49:00,
2013-06-17 06:50:00,77.0,73.5,29.92,SSE,152,0.0,2.0,89,0.00,,,0.00,WeatherCatV1.24B11,2013-06-17 11:50:00,
2013-06-17 06:54:00,77.0,73.5,29.91,SE,144,0.0,0.0,89,0.00,,,0.00,WeatherCatV1.15B25,2013-06-17 11:54:00,
2013-06-17 06:55:00,77.1,73.6,29.92,SSE,155,0.0,1.0,89,0.00,,,0.00,WeatherCatV1.24B11,2013-06-17 11:55:00,
2013-06-17 06:59:00,77.0,73.5,29.92,SSE,159,1.0,4.0,89,0.00,,,0.00,WeatherCatV1.15B25,2013-06-17 11:59:00,
2013-06-17 07:00:00,77.1,73.6,29.92,SSE,156,0.0,0.0,89,0.00,,,0.00,WeatherCatV1.24B11,2013-06-17 12:00:00,
2013-06-17 07:04:00,77.0,73.5,29.92,SSE,157,0.0,1.0,89,0.00,,,0.00,WeatherCatV1.15B25,2013-06-17 12:04:00,
2013-06-17 07:05:00,77.1,73.6,29.92,SSE,157,0.0,0.0,89,0.00,,,0.00,WeatherCatV1.24B11,2013-06-17 12:05:00,
2013-06-17 07:09:00,77.1,73.6,29.92,SSE,157,0.0,3.0,89,0.00,,,0.00,WeatherCatV1.15B25,2013-06-17 12:09:00,
2013-06-17 07:10:00,77.2,73.7,29.92,SSE,157,0.0,0.0,89,0.00,,,0.00,WeatherCatV1.24B11,2013-06-17 12:10:00,
2013-06-17 07:14:00,77.1,73.6,29.92,SSE,156,0.0,0.0,89,0.00,,,0.00,WeatherCatV1.15B25,2013-06-17 12:14:00,
2013-06-17 07:15:00,77.3,73.8,29.92,SSE,156,0.0,1.0,89,0.00,,,0.00,WeatherCatV1.24B11,2013-06-17 12:15:00,
2013-06-17 07:19:00,77.2,73.7,29.92,SSE,157,0.0,1.0,89,0.00,,,0.00,WeatherCatV1.15B25,2013-06-17 12:19:00,
2013-06-17 07:20:00,77.3,73.8,29.91,SSE,149,0.0,0.0,89,0.00,,,0.00,WeatherCatV1.24B11,2013-06-17 12:20:00,
2013-06-17 07:24:00,77.2,73.7,29.92,SSE,156,0.0,0.0,89,0.00,,,0.00,WeatherCatV1.15B25,2013-06-17 12:24:00,
2013-06-17 07:25:00,77.3,73.8,29.92,SE,142,0.0,0.0,89,0.00,,,0.00,WeatherCatV1.24B11,2013-06-17 12:25:00,
2013-06-17 07:29:00,77.3,73.8,29.91,SE,146,0.0,0.0,89,0.00,,,0.00,WeatherCatV1.15B25,2013-06-17 12:29:00,
2013-06-17 07:30:00,77.5,74.0,29.92,SE,142,0.0,0.0,89,0.00,,,0.00,WeatherCatV1.24B11,2013-06-17 12:30:00,
2013-06-17 07:34:00,77.3,73.8,29.91,SE,141,2.0,4.0,89,0.00,,,0.00,WeatherCatV1.15B25,2013-06-17 12:34:00,
2013-06-17 07:35:00,77.6,74.1,29.92,SE,142,0.0,0.0,89,0.00,,,0.00,WeatherCatV1.24B11,2013-06-17 12:35:00,
2013-06-17 07:39:00,77.4,73.9,29.92,SE,141,0.0,3.0,89,0.00,,,0.00,WeatherCatV1.15B25,2013-06-17 12:39:00,
2013-06-17 07:40:00,77.7,74.2,29.92,SE,142,0.0,3.0,89,0.00,,,0.00,WeatherCatV1.24B11,2013-06-17 12:40:00,
2013-06-17 07:44:00,77.5,74.0,29.92,SE,141,0.0,2.0,89,0.00,,,0.00,WeatherCatV1.15B25,2013-06-17 12:44:00,
2013-06-17 07:45:00,77.9,74.4,29.92,SE,142,0.0,0.0,89,0.00,,,0.00,WeatherCatV1.24B11,2013-06-17 12:45:00,
2013-06-17 07:49:00,77.6,74.1,29.92,SE,142,0.0,0.0,89,0.00,,,0.00,WeatherCatV1.15B25,2013-06-17 12:49:00,
2013-06-17 07:50:00,78.1,74.6,29.92,SE,142,0.0,0.0,89,0.00,,,0.00,WeatherCatV1.24B11,2013-06-17 12:50:00,
2013-06-17 07:54:00,77.8,74.3,29.92,SE,142,0.0,0.0,89,0.00,,,0.00,WeatherCatV1.15B25,2013-06-17 12:54:00,
2013-06-17 07:55:00,78.2,74.7,29.92,SSE,150,0.0,0.0,89,0.00,,,0.00,WeatherCatV1.24B11,2013-06-17 12:55:00,
2013-06-17 07:59:00,78.0,74.5,29.92,SE,141,0.0,0.0,89,0.00,,,0.00,WeatherCatV1.15B25,2013-06-17 12:59:00,
2013-06-17 08:00:00,78.4,74.9,29.92,SE,146,1.0,0.0,89,0.00,,,0.00,WeatherCatV1.24B11,2013-06-17 13:00:00,
2013-06-17 08:04:00,78.2,74.7,29.92,SSE,153,0.0,3.0,89,0.00,,,0.00,WeatherCatV1.15B25,2013-06-17 13:04:00,
2013-06-17 08:05:00,78.7,74.8,29.92,SE,127,1.0,0.0,88,0.00,,,0.00,WeatherCatV1.24B11,2013-06-17 13:05:00,
2013-06-17 08:09:00,78.3,74.8,29.92,SE,142,0.0,3.0,89,0.00,,,0.00,WeatherCatV1.15B25,2013-06-17 13:09:00,
2013-06-17 08:10:00,78.9,75.0,29.92,ESE,111,1.0,0.0,88,0.00,,,0.00,WeatherCatV1.24B11,2013-06-17 13:10:00,
2013-06-17 08:14:00,78.5,75.0,29.92,SE,142,0.0,4.0,89,0.00,,,0.00,WeatherCatV1.15B25,2013-06-17 13:14:00,
2013-06-17 08:15:00,79.1,75.2,29.92,SE,140,1.0,2.0,88,0.00,,,0.00,WeatherCatV1.24B11,2013-06-17 13:15:00,
2013-06-17 08:19:00,78.7,74.8,29.92,East,101,0.0,6.0,88,0.00,,,0.00,WeatherCatV1.15B25,2013-06-17 13:19:00,
2013-06-17 08:20:00,79.3,75.1,29.92,SE,142,0.0,1.0,87,0.00,,,0.00,WeatherCatV1.24B11,2013-06-17 13:20:00,
2013-06-17 08:24:00,78.9,75.0,29.92,SSE,165,0.0,4.0,88,0.00,,,0.00,WeatherCatV1.15B25,2013-06-17 13:24:00,
2013-06-17 08:25:00,79.4,75.2,29.92,SE,145,1.0,5.0,87,0.00,,,0.00,WeatherCatV1.24B11,2013-06-17 13:25:00,
2013-06-17 08:29:00,79.2,75.0,29.92,South,182,0.0,0.0,87,0.00,,,0.00,WeatherCatV1.15B25,2013-06-17 13:29:00,
2013-06-17 08:30:00,79.6,75.0,29.92,SE,139,1.0,4.0,86,0.00,,,0.00,WeatherCatV1.24B11,2013-06-17 13:30:00,
2013-06-17 08:34:00,79.4,75.2,29.92,SE,145,4.0,4.0,87,0.00,,,0.00,WeatherCatV1.15B25,2013-06-17 13:34:00,
2013-06-17 08:35:00,79.8,75.2,29.93,SSE,151,1.0,0.0,86,0.00,,,0.00,WeatherCatV1.24B11,2013-06-17 13:35:00,
2013-06-17 08:39:00,79.6,75.4,29.92,ESE,117,0.0,3.0,87,0.00,,,0.00,WeatherCatV1.15B25,2013-06-17 13:39:00,
2013-06-17 08:40:00,80.0,75.4,29.93,SE,136,0.0,0.0,86,0.00,,,0.00,WeatherCatV1.24B11,2013-06-17 13:40:00,
2013-06-17 08:44:00,79.7,75.1,29.93,SSE,153,1.0,1.0,86,0.00,,,0.00,WeatherCatV1.15B25,2013-06-17 13:44:00,
2013-06-17 08:45:00,80.2,75.3,29.93,SE,137,1.0,0.0,85,0.00,,,0.00,WeatherCatV1.24B11,2013-06-17 13:45:00,
2013-06-17 08:49:00,79.9,75.3,29.93,ESE,120,1.0,4.0,86,0.00,,,0.00,WeatherCatV1.15B25,2013-06-17 13:49:00,
2013-06-17 08:50:00,80.7,75.8,29.93,SE,142,0.0,0.0,85,0.00,,,0.00,WeatherCatV1.24B11,2013-06-17 13:50:00,
2013-06-17 08:54:00,80.1,75.5,29.93,SE,139,0.0,3.0,86,0.00,,,0.00,WeatherCatV1.15B25,2013-06-17 13:54:00,
2013-06-17 08:55:00,81.3,76.0,29.93,SSE,147,1.0,0.0,84,0.00,,,0.00,WeatherCatV1.24B11,2013-06-17 13:55:00,
2013-06-17 08:59:00,80.5,75.9,29.93,SE,145,0.0,2.0,86,0.00,,,0.00,WeatherCatV1.15B25,2013-06-17 13:59:00,
2013-06-17 09:00:00,81.7,76.0,29.93,SSE,147,1.0,2.0,83,0.00,,,0.00,WeatherCatV1.24B11,2013-06-17 14:00:00,
2013-06-17 09:04:00,81.1,76.1,29.94,SE,131,0.0,6.0,85,0.00,,,0.00,WeatherCatV1.15B25,2013-06-17 14:04:00,
2013-06-17 09:05:00,81.6,75.6,29.94,SSE,148,1.0,2.0,82,0.00,,,0.00,WeatherCatV1.24B11,2013-06-17 14:05:00,
2013-06-17 09:09:00,81.6,75.9,29.94,ENE,75,0.0,7.0,83,0.00,,,0.00,WeatherCatV1.15B25,2013-06-17 14:09:00,
2013-06-17 09:10:00,81.3,75.2,29.94,SE,132,1.0,5.0,82,0.00,,,0.00,WeatherCatV1.24B11,2013-06-17 14:10:00,
2013-06-17 09:14:00,81.7,75.7,29.94,South,184,5.0,7.0,82,0.00,,,0.00,WeatherCatV1.15B25,2013-06-17 14:14:00,
2013-06-17 09:15:00,81.0,75.0,29.93,SE,137,1.0,4.0,82,0.00,,,0.00,WeatherCatV1.24B11,2013-06-17 14:15:00,
2013-06-17 09:19:00,81.4,75.4,29.94,ESE,107,0.0,5.0,82,0.00,,,0.00,WeatherCatV1.15B25,2013-06-17 14:19:00,
2013-06-17 09:20:00,81.1,75.4,29.93,SSE,161,1.0,3.0,83,0.00,,,0.00,WeatherCatV1.24B11,2013-06-17 14:20:00,
2013-06-17 09:24:00,81.0,75.0,29.94,SE,142,1.0,4.0,82,0.00,,,0.00,WeatherCatV1.15B25,2013-06-17 14:24:00,
2013-06-17 09:25:00,82.0,75.9,29.93,SSE,148,1.0,6.0,82,0.00,,,0.00,WeatherCatV1.24B11,2013-06-17 14:25:00,
2013-06-17 09:29:00,81.0,75.3,29.93,SSE,168,1.0,10.0,83,0.00,,,0.00,WeatherCatV1.15B25,2013-06-17 14:29:00,
2013-06-17 09:30:00,82.8,76.3,29.93,SE,135,1.0,6.0,81,0.00,,,0.00,WeatherCatV1.24B11,2013-06-17 14:30:00,
2013-06-17 09:34:00,81.5,75.8,29.93,SE,146,0.0,7.0,83,0.00,,,0.00,WeatherCatV1.15B25,2013-06-17 14:34:00,
2013-06-17 09:35:00,83.5,76.7,29.93,SE,124,1.0,4.0,80,0.00,,,0.00,WeatherCatV1.24B11,2013-06-17 14:35:00,
2013-06-17 09:39:00,82.3,76.2,29.93,SSE,155,0.0,0.0,82,0.00,,,0.00,WeatherCatV1.15B25,2013-06-17 14:39:00,
2013-06-17 09:40:00,83.6,76.0,29.93,SSE,163,1.0,7.0,78,0.00,,,0.00,WeatherCatV1.24B11,2013-06-17 14:40:00,
2013-06-17 09:44:00,83.1,76.3,29.93,ESE,119,2.0,4.0,80,0.00,,,0.00,WeatherCatV1.15B25,2013-06-17 14:44:00,
2013-06-17 09:45:00,84.0,76.4,29.93,SSE,152,1.0,3.0,78,0.00,,,0.00,WeatherCatV1.24B11,2013-06-17 14:45:00,
2013-06-17 09:49:00,83.6,76.0,29.93,South,183,0.0,8.0,78,0.00,,,0.00,WeatherCatV1.15B25,2013-06-17 14:49:00,
2013-06-17 09:50:00,84.5,76.1,29.94,SSE,168,1.0,1.0,76,0.00,,,0.00,WeatherCatV1.24B11,2013-06-17 14:50:00,
2013-06-17 09:54:00,83.7,76.1,29.93,ESE,122,1.0,6.0,78,0.00,,,0.00,WeatherCatV1.15B25,2013-06-17 14:54:00,
2013-06-17 09:55:00,85.0,76.6,29.94,SSE,148,2.0,2.0,76,0.00,,,0.00,WeatherCatV1.24B11,2013-06-17 14:55:00,
2013-06-17 09:59:00,84.2,76.2,29.93,SSW,196,3.0,7.0,77,0.00,,,0.00,WeatherCatV1.15B25,2013-06-17 14:59:00,
2013-06-17 10:00:00,85.0,75.8,29.94,SE,137,2.0,6.0,74,0.00,,,0.00,WeatherCatV1.24B11,2013-06-17 15:00:00,
2013-06-17 10:04:00,84.7,76.3,29.94,ESE,119,2.0,11.0,76,0.00,,,0.00,WeatherCatV1.15B25,2013-06-17 15:04:00,
2013-06-17 10:05:00,84.5,75.3,29.94,SE,144,2.0,3.0,74,0.00,,,0.00,WeatherCatV1.24B11,2013-06-17 15:05:00,
2013-06-17 10:09:00,85.1,76.3,29.94,SSE,161,1.0,7.0,75,0.00,,,0.00,WeatherCatV1.15B25,2013-06-17 15:09:00,
2013-06-17 10:10:00,84.3,75.5,29.94,SSE,153,1.0,8.0,75,0.00,,,0.00,WeatherCatV1.24B11,2013-06-17 15:10:00,
2013-06-17 10:14:00,84.9,75.7,29.94,SSE,155,2.0,3.0,74,0.00,,,0.00,WeatherCatV1.15B25,2013-06-17 15:14:00,
2013-06-17 10:15:00,84.6,76.2,29.94,SSE,147,1.0,5.0,76,0.00,,,0.00,WeatherCatV1.24B11,2013-06-17 15:15:00,
2013-06-17 10:19:00,84.4,75.2,29.94,South,187,1.0,6.0,74,0.00,,,0.00,WeatherCatV1.15B25,2013-06-17 15:19:00,
2013-06-17 10:20:00,85.4,76.1,29.95,SSE,151,2.0,8.0,74,0.00,,,0.00,WeatherCatV1.24B11,2013-06-17 15:20:00,
2013-06-17 10:24:00,84.5,75.7,29.94,SSW,209,1.0,8.0,75,0.00,,,0.00,WeatherCatV1.15B25,2013-06-17 15:24:00,
2013-06-17 10:25:00,85.7,76.4,29.95,SE,127,1.0,1.0,74,0.00,,,0.00,WeatherCatV1.24B11,2013-06-17 15:25:00,
2013-06-17 10:29:00,85.1,76.7,29.95,SSE,162,0.0,7.0,76,0.00,,,0.00,WeatherCatV1.15B25,2013-06-17 15:29:00,
2013-06-17 10:30:00,86.3,76.6,29.95,ESE,113,1.0,2.0,73,0.00,,,0.00,WeatherCatV1.24B11,2013-06-17 15:30:00,
2013-06-17 10:34:00,85.5,76.2,29.95,SE,132,0.0,1.0,74,0.00,,,0.00,WeatherCatV1.15B25,2013-06-17 15:34:00,
2013-06-17 10:35:00,86.2,75.7,29.95,SSE,155,1.0,6.0,71,0.00,,,0.00,WeatherCatV1.24B11,2013-06-17 15:35:00,
2013-06-17 10:39:00,86.0,76.3,29.95,ESE,108,0.0,4.0,73,0.00,,,0.00,WeatherCatV1.15B25,2013-06-17 15:39:00,
2013-06-17 10:40:00,86.1,75.2,29.95,South,180,2.0,8.0,70,0.00,,,0.00,WeatherCatV1.24B11,2013-06-17 15:40:00,
2013-06-17 10:44:00,86.3,75.8,29.95,South,177,2.0,2.0,71,0.00,,,0.00,WeatherCatV1.15B25,2013-06-17 15:44:00,
2013-06-17 10:45:00,85.7,75.2,29.95,South,184,2.0,6.0,71,0.00,,,0.00,WeatherCatV1.24B11,2013-06-17 15:45:00,
2013-06-17 10:49:00,86.2,75.7,29.95,South,180,3.0,5.0,71,0.00,,,0.00,WeatherCatV1.15B25,2013-06-17 15:49:00,
2013-06-17 10:50:00,85.5,75.4,29.95,South,186,2.0,6.0,72,0.00,,,0.00,WeatherCatV1.24B11,2013-06-17 15:50:00,
2013-06-17 10:54:00,85.9,75.4,29.95,South,186,8.0,8.0,71,0.00,,,0.00,WeatherCatV1.15B25,2013-06-17 15:54:00,
2013-06-17 10:55:00,86.2,75.2,29.95,South,186,1.0,6.0,70,0.00,,,0.00,WeatherCatV1.24B11,2013-06-17 15:55:00,
2013-06-17 10:59:00,85.5,75.4,29.95,South,182,1.0,5.0,72,0.00,,,0.00,WeatherCatV1.15B25,2013-06-17 15:59:00,
2013-06-17 11:00:00,87.2,75.3,29.95,South,181,1.0,5.0,68,0.00,,,0.00,WeatherCatV1.24B11,2013-06-17 16:00:00,
2013-06-17 11:04:00,85.8,75.3,29.95,South,190,0.0,3.0,71,0.00,,,0.00,WeatherCatV1.15B25,2013-06-17 16:04:00,
2013-06-17 11:05:00,87.6,75.2,29.95,SE,127,1.0,1.0,67,0.00,,,0.00,WeatherCatV1.24B11,2013-06-17 16:05:00,
2013-06-17 11:09:00,86.9,75.9,29.95,South,178,0.0,6.0,70,0.00,,,0.00,WeatherCatV1.15B25,2013-06-17 16:09:00,
2013-06-17 11:10:00,87.6,74.3,29.95,SE,144,1.0,1.0,65,0.00,,,0.00,WeatherCatV1.24B11,2013-06-17 16:10:00,
2013-06-17 11:14:00,87.5,75.6,29.95,ESE,103,0.0,1.0,68,0.00,,,0.00,WeatherCatV1.15B25,2013-06-17 16:14:00,
2013-06-17 11:15:00,88.2,74.9,29.95,SE,144,1.0,6.0,65,0.00,,,0.00,WeatherCatV1.24B11,2013-06-17 16:15:00,
2013-06-17 11:19:00,87.5,74.2,29.95,South,188,7.0,9.0,65,0.00,,,0.00,WeatherCatV1.15B25,2013-06-17 16:19:00,
2013-06-17 11:20:00,88.8,75.5,29.95,SSE,148,1.0,4.0,65,0.00,,,0.00,WeatherCatV1.24B11,2013-06-17 16:20:00,
2013-06-17 11:24:00,87.9,75.1,29.95,SSE,159,0.0,2.0,66,0.00,,,0.00,WeatherCatV1.15B25,2013-06-17 16:24:00,
2013-06-17 11:25:00,89.2,74.4,29.95,SSE,151,1.0,4.0,62,0.00,,,0.00,WeatherCatV1.24B11,2013-06-17 16:25:00,
2013-06-17 11:29:00,88.6,74.8,29.95,ESE,119,0.0,0.0,64,0.00,,,0.00,WeatherCatV1.15B25,2013-06-17 16:29:00,
2013-06-17 11:30:00,89.5,74.2,29.95,SE,125,1.0,4.0,61,0.00,,,0.00,WeatherCatV1.24B11,2013-06-17 16:30:00,
2013-06-17 11:34:00,89.2,74.9,29.95,SSE,149,0.0,4.0,63,0.00,,,0.00,WeatherCatV1.15B25,2013-06-17 16:34:00,
2013-06-17 11:35:00,89.6,74.8,29.95,ESE,121,1.0,4.0,62,0.00,,,0.00,WeatherCatV1.24B11,2013-06-17 16:35:00,
2013-06-17 11:39:00,89.4,74.6,29.95,SE,138,0.0,2.0,62,0.00,,,0.00,WeatherCatV1.15B25,2013-06-17 16:39:00,
2013-06-17 11:40:00,89.8,74.5,29.94,SE,145,1.0,0.0,61,0.00,,,0.00,WeatherCatV1.24B11,2013-06-17 16:40:00,
2013-06-17 11:44:00,89.5,74.7,29.95,East,92,0.0,5.0,62,0.00,,,0.00,WeatherCatV1.15B25,2013-06-17 16:44:00,
2013-06-17 11:45:00,90.0,74.7,29.94,SE,144,1.0,3.0,61,0.00,,,0.00,WeatherCatV1.24B11,2013-06-17 16:45:00,
2013-06-17 11:49:00,89.8,74.5,29.94,SSE,155,0.0,4.0,61,0.00,,,0.00,WeatherCatV1.15B25,2013-06-17 16:49:00,
2013-06-17 11:50:00,90.5,74.7,29.94,ESE,115,1.0,1.0,60,0.00,,,0.00,WeatherCatV1.24B11,2013-06-17 16:50:00,
2013-06-17 11:54:00,89.9,74.6,29.94,SE,132,3.0,4.0,61,0.00,,,0.00,WeatherCatV1.15B25,2013-06-17 16:54:00,
2013-06-17 11:55:00,90.6,73.8,29.94,ESE,122,1.0,3.0,58,0.00,,,0.00,WeatherCatV1.24B11,2013-06-17 16:55:00,
2013-06-17 11:59:00,90.4,75.1,29.94,ESE,123,0.0,5.0,61,0.00,,,0.00,WeatherCatV1.15B25,2013-06-17 16:59:00,
2013-06-17 12:00:00,90.1,74.3,29.94,SE,144,1.0,0.0,60,0.00,,,0.00,WeatherCatV1.24B11,2013-06-17 17:00:00,
2013-06-17 12:04:00,90.7,73.8,29.94,ESE,105,3.0,6.0,58,0.00,,,0.00,WeatherCatV1.15B25,2013-06-17 17:04:00,
2013-06-17 12:05:00,90.6,75.3,29.94,SSE,168,1.0,4.0,61,0.00,,,0.00,WeatherCatV1.24B11,2013-06-17 17:05:00,
2013-06-17 12:09:00,90.1,74.3,29.94,SE,146,0.0,0.0,60,0.00,,,0.00,WeatherCatV1.15B25,2013-06-17 17:09:00,
2013-06-17 12:10:00,90.7,74.3,29.94,SSE,150,1.0,1.0,59,0.00,,,0.00,WeatherCatV1.24B11,2013-06-17 17:10:00,
2013-06-17 12:14:00,90.6,74.8,29.94,SW,215,4.0,6.0,60,0.00,,,0.00,WeatherCatV1.15B25,2013-06-17 17:14:00,
2013-06-17 12:15:00,90.7,73.8,29.93,ESE,117,1.0,7.0,58,0.00,,,0.00,WeatherCatV1.24B11,2013-06-17 17:15:00,
2013-06-17 12:19:00,90.7,74.4,29.94,SE,139,0.0,3.0,59,0.00,,,0.00,WeatherCatV1.15B25,2013-06-17 17:19:00,
2013-06-17 12:20:00,90.7,74.3,29.93,SE,126,2.0,6.0,59,0.00,,,0.00,WeatherCatV1.24B11,2013-06-17 17:20:00,
2013-06-17 12:24:00,90.8,73.9,29.94,ESE,105,0.0,8.0,58,0.00,,,0.00,WeatherCatV1.15B25,2013-06-17 17:24:00,
2013-06-17 12:25:00,91.2,74.3,29.93,ESE,108,2.0,8.0,58,0.00,,,0.00,WeatherCatV1.24B11,2013-06-17 17:25:00,
2013-06-17 12:29:00,90.7,74.9,29.93,SE,132,2.0,7.0,60,0.00,,,0.00,WeatherCatV1.15B25,2013-06-17 17:29:00,
2013-06-17 12:30:00,91.8,74.9,29.93,ESE,121,1.0,1.0,58,0.00,,,0.00,WeatherCatV1.24B11,2013-06-17 17:30:00,
2013-06-17 12:34:00,91.1,74.2,29.93,East,82,0.0,6.0,58,0.00,,,0.00,WeatherCatV1.15B25,2013-06-17 17:34:00,
2013-06-17 12:35:00,91.8,73.8,29.93,ESE,120,1.0,7.0,56,0.00,,,0.00,WeatherCatV1.24B11,2013-06-17 17:35:00,
2013-06-17 12:39:00,91.7,75.3,29.93,SSE,163,0.0,5.0,59,0.00,,,0.00,WeatherCatV1.15B25,2013-06-17 17:39:00,
2013-06-17 12:40:00,91.8,74.3,29.93,ESE,121,2.0,7.0,57,0.00,,,0.00,WeatherCatV1.24B11,2013-06-17 17:40:00,
2013-06-17 12:44:00,91.8,74.4,29.93,ESE,103,3.0,7.0,57,0.00,,,0.00,WeatherCatV1.15B25,2013-06-17 17:44:00,
2013-06-17 12:45:00,91.1,74.7,29.92,SSE,155,2.0,2.0,59,0.00,,,0.00,WeatherCatV1.24B11,2013-06-17 17:45:00,
2013-06-17 12:49:00,91.9,74.4,29.93,ENE,68,7.0,7.0,57,0.00,,,0.00,WeatherCatV1.15B25,2013-06-17 17:49:00,
2013-06-17 12:50:00,91.7,74.3,29.92,SSE,147,1.0,0.0,57,0.00,,,0.00,WeatherCatV1.24B11,2013-06-17 17:50:00,
2013-06-17 12:54:00,91.1,74.2,29.92,ESE,118,0.0,4.0,58,0.00,,,0.00,WeatherCatV1.15B25,2013-06-17 17:54:00,
2013-06-17 12:55:00,91.9,75.0,29.92,ESE,116,1.0,2.0,58,0.00,,,0.00,WeatherCatV1.24B11,2013-06-17 17:55:00,
2013-06-17 12:59:00,91.3,74.9,29.92,SSW,211,0.0,6.0,59,0.00,,,0.00,WeatherCatV1.15B25,2013-06-17 17:59:00,
2013-06-17 13:00:00,92.4,74.9,29.92,ESE,103,1.0,9.0,57,0.00,,,0.00,WeatherCatV1.24B11,2013-06-17 18:00:00,
2013-06-17 13:04:00,91.7,74.3,29.92,ESE,105,0.0,4.0,57,0.00,,,0.00,WeatherCatV1.15B25,2013-06-17 18:04:00,
2013-06-17 13:05:00,91.9,73.4,29.91,ESE,106,2.0,7.0,55,0.00,,,0.00,WeatherCatV1.24B11,2013-06-17 18:05:00,
2013-06-17 13:09:00,92.1,74.6,29.92,East,97,0.0,8.0,57,0.00,,,0.00,WeatherCatV1.15B25,2013-06-17 18:09:00,
2013-06-17 13:10:00,92.3,74.3,29.91,SE,124,2.0,4.0,56,0.00,,,0.00,WeatherCatV1.24B11,2013-06-17 18:10:00,
2013-06-17 13:14:00,92.1,74.1,29.92,ESE,117,8.0,8.0,56,0.00,,,0.00,WeatherCatV1.15B25,2013-06-17 18:14:00,
2013-06-17 13:15:00,91.8,74.9,29.91,ESE,103,1.0,4.0,58,0.00,,,0.00,WeatherCatV1.24B11,2013-06-17 18:15:00,
2013-06-17 13:19:00,92.2,73.7,29.91,ESE,113,0.0,1.0,55,0.00,,,0.00,WeatherCatV1.15B25,2013-06-17 18:19:00,
2013-06-17 13:20:00,92.1,73.6,29.91,SE,132,2.0,3.0,55,0.00,,,0.00,WeatherCatV1.24B11,2013-06-17 18:20:00,
2013-06-17 13:24:00,92.1,74.1,29.91,East,95,0.0,7.0,56,0.00,,,0.00,WeatherCatV1.15B25,2013-06-17 18:24:00,
2013-06-17 13:25:00,91.8,74.3,29.91,South,170,2.0,7.0,57,0.00,,,0.00,WeatherCatV1.24B11,2013-06-17 18:25:00,
2013-06-17 13:29:00,91.9,75.0,29.91,ESE,109,0.0,5.0,58,0.00,,,0.00,WeatherCatV1.15B25,2013-06-17 18:29:00,
2013-06-17 13:30:00,92.8,74.8,29.91,SSE,156,2.0,5.0,56,0.00,,,0.00,WeatherCatV1.24B11,2013-06-17 18:30:00,
2013-06-17 13:34:00,92.3,74.3,29.91,SSW,210,8.0,10.0,56,0.00,,,0.00,WeatherCatV1.15B25,2013-06-17 18:34:00,
2013-06-17 13:35:00,93.2,74.0,29.90,SE,134,1.0,1.0,54,0.00,,,0.00,WeatherCatV1.24B11,2013-06-17 18:35:00,
2013-06-17 13:39:00,92.0,75.1,29.91,SSE,158,4.0,5.0,58,0.00,,,0.00,WeatherCatV1.15B25,2013-06-17 18:39:00,
2013-06-17 13:40:00,93.5,74.9,29.90,SE,130,1.0,8.0,55,0.00,,,0.00,WeatherCatV1.24B11,2013-06-17 18:40:00,
2013-06-17 13:44:00,93.0,73.8,29.91,ESE,118,0.0,2.0,54,0.00,,,0.00,WeatherCatV1.15B25,2013-06-17 18:44:00,
2013-06-17 13:45:00,93.7,74.5,29.90,SE,129,1.0,8.0,54,0.00,,,0.00,WeatherCatV1.24B11,2013-06-17 18:45:00,
2013-06-17 13:49:00,93.4,74.8,29.90,SE,134,1.0,3.0,55,0.00,,,0.00,WeatherCatV1.15B25,2013-06-17 18:49:00,
2013-06-17 13:50:00,93.7,73.9,29.90,SE,133,2.0,2.0,53,0.00,,,0.00,WeatherCatV1.24B11,2013-06-17 18:50:00,
2013-06-17 13:54:00,93.6,74.4,29.90,ESE,111,0.0,7.0,54,0.00,,,0.00,WeatherCatV1.15B25,2013-06-17 18:54:00,
2013-06-17 13:55:00,94.0,75.3,29.89,SE,135,1.0,6.0,55,0.00,,,0.00,WeatherCatV1.24B11,2013-06-17 18:55:00,
2013-06-17 13:59:00,93.6,73.8,29.90,SE,145,0.0,5.0,53,0.00,,,0.00,WeatherCatV1.15B25,2013-06-17 18:59:00,
2013-06-17 14:00:00,94.4,75.2,29.89,SE,132,1.0,3.0,54,0.00,,,0.00,WeatherCatV1.24B11,2013-06-17 19:00:00,
2013-06-17 14:04:00,93.8,74.6,29.89,East,101,0.0,1.0,54,0.00,,,0.00,WeatherCatV1.15B25,2013-06-17 19:04:00,
2013-06-17 14:05:00,94.5,75.8,29.89,SE,140,1.0,3.0,55,0.00,,,0.00,WeatherCatV1.24B11,2013-06-17 19:05:00,
2013-06-17 14:09:00,94.3,75.0,29.89,ESE,121,0.0,5.0,54,0.00,,,0.00,WeatherCatV1.15B25,2013-06-17 19:09:00,
2013-06-17 14:10:00,94.7,74.9,29.89,SSE,168,1.0,1.0,53,0.00,,,0.00,WeatherCatV1.24B11,2013-06-17 19:10:00,
2013-06-17 14:14:00,94.4,74.6,29.89,SE,146,0.0,5.0,53,0.00,,,0.00,WeatherCatV1.15B25,2013-06-17 19:14:00,
2013-06-17 14:15:00,94.4,75.2,29.89,South,177,0.0,1.0,54,0.00,,,0.00,WeatherCatV1.24B11,2013-06-17 19:15:00,
2013-06-17 14:19:00,94.7,74.9,29.89,South,190,0.0,6.0,53,0.00,,,0.00,WeatherCatV1.15B25,2013-06-17 19:19:00,
2013-06-17 14:20:00,94.6,73.6,29.89,SSE,168,0.0,0.0,51,0.00,,,0.00,WeatherCatV1.24B11,2013-06-17 19:20:00,
2013-06-17 14:24:00,94.5,74.7,29.89,South,176,0.0,1.0,53,0.00,,,0.00,WeatherCatV1.15B25,2013-06-17 19:24:00,
2013-06-17 14:25:00,94.4,74.0,29.88,SSE,166,1.0,4.0,52,0.00,,,0.00,WeatherCatV1.24B11,2013-06-17 19:25:00,
2013-06-17 14:29:00,94.5,74.1,29.89,SSE,165,0.0,5.0,52,0.00,,,0.00,WeatherCatV1.15B25,2013-06-17 19:29:00,
2013-06-17 14:30:00,94.7,74.3,29.88,SE,133,1.0,5.0,52,0.00,,,0.00,WeatherCatV1.24B11,2013-06-17 19:30:00,
2013-06-17 14:34:00,94.6,73.6,29.88,SSW,202,0.0,5.0,51,0.00,,,0.00,WeatherCatV1.15B25,2013-06-17 19:34:00,
2013-06-17 14:35:00,95.1,74.1,29.88,SE,133,1.0,5.0,51,0.00,,,0.00,WeatherCatV1.24B11,2013-06-17 19:35:00,
2013-06-17 14:39:00,94.5,74.7,29.88,SSE,166,3.0,7.0,53,0.00,,,0.00,WeatherCatV1.15B25,2013-06-17 19:39:00,
2013-06-17 14:40:00,95.4,74.9,29.88,SE,130,1.0,6.0,52,0.00,,,0.00,WeatherCatV1.24B11,2013-06-17 19:40:00,
2013-06-17 14:44:00,94.9,73.9,29.88,SE,126,1.0,7.0,51,0.00,,,0.00,WeatherCatV1.15B25,2013-06-17 19:44:00,
2013-06-17 14:45:00,95.2,74.2,29.87,SSE,161,1.0,1.0,51,0.00,,,0.00,WeatherCatV1.24B11,2013-06-17 19:45:00,
2013-06-17 14:49:00,95.2,74.2,29.88,East,96,0.0,4.0,51,0.00,,,0.00,WeatherCatV1.15B25,2013-06-17 19:49:00,
2013-06-17 14:50:00,94.5,73.5,29.87,SSE,147,1.0,1.0,51,0.00,,,0.00,WeatherCatV1.24B11,2013-06-17 19:50:00,
2013-06-17 14:54:00,95.4,73.8,29.88,South,189,0.0,10.0,50,0.00,,,0.00,WeatherCatV1.15B25,2013-06-17 19:54:00,
2013-06-17 14:55:00,94.8,73.8,29.87,SE,144,1.0,4.0,51,0.00,,,0.00,WeatherCatV1.24B11,2013-06-17 19:55:00,
2013-06-17 14:59:00,94.7,73.7,29.87,SSE,148,0.0,3.0,51,0.00,,,0.00,WeatherCatV1.15B25,2013-06-17 19:59:00,
2013-06-17 15:00:00,95.2,74.2,29.87,South,190,1.0,1.0,51,0.00,,,0.00,WeatherCatV1.24B11,2013-06-17 20:00:00,
2013-06-17 15:04:00,94.7,73.7,29.87,SSE,153,0.0,1.0,51,0.00,,,0.00,WeatherCatV1.15B25,2013-06-17 20:04:00,
2013-06-17 15:05:00,95.6,73.9,29.86,South,176,1.0,8.0,50,0.00,,,0.00,WeatherCatV1.24B11,2013-06-17 20:05:00,
2013-06-17 15:09:00,95.1,74.1,29.87,SW,227,6.0,8.0,51,0.00,,,0.00,WeatherCatV1.15B25,2013-06-17 20:09:00,
2013-06-17 15:10:00,95.8,74.1,29.86,South,174,1.0,4.0,50,0.00,,,0.00,WeatherCatV1.24B11,2013-06-17 20:10:00,
2013-06-17 15:14:00,95.4,73.8,29.87,SSW,194,0.0,5.0,50,0.00,,,0.00,WeatherCatV1.15B25,2013-06-17 20:14:00,
2013-06-17 15:15:00,95.8,74.1,29.86,SSE,168,2.0,5.0,50,0.00,,,0.00,WeatherCatV1.24B11,2013-06-17 20:15:00,
2013-06-17 15:19:00,95.6,74.5,29.86,SSE,157,1.0,4.0,51,0.00,,,0.00,WeatherCatV1.15B25,2013-06-17 20:19:00,
2013-06-17 15:20:00,96.0,73.7,29.86,South,171,2.0,4.0,49,0.00,,,0.00,WeatherCatV1.24B11,2013-06-17 20:20:00,
2013-06-17 15:24:00,95.7,74.0,29.86,SSE,163,0.0,7.0,50,0.00,,,0.00,WeatherCatV1.15B25,2013-06-17 20:24:00,
2013-06-17 15:25:00,96.5,73.5,29.85,SSE,147,2.0,6.0,48,0.00,,,0.00,WeatherCatV1.24B11,2013-06-17 20:25:00,
2013-06-17 15:29:00,96.0,73.7,29.86,SW,215,0.0,5.0,49,0.00,,,0.00,WeatherCatV1.15B25,2013-06-17 20:29:00,
2013-06-17 15:30:00,96.0,73.7,29.85,SSE,156,2.0,5.0,49,0.00,,,0.00,WeatherCatV1.24B11,2013-06-17 20:30:00,
2013-06-17 15:34:00,96.5,74.2,29.86,ESE,105,1.0,6.0,49,0.00,,,0.00,WeatherCatV1.15B25,2013-06-17 20:34:00,
2013-06-17 15:35:00,95.6,73.3,29.85,SSE,150,2.0,4.0,49,0.00,,,0.00,WeatherCatV1.24B11,2013-06-17 20:35:00,
2013-06-17 15:39:00,96.1,73.8,29.85,SSE,147,4.0,8.0,49,0.00,,,0.00,WeatherCatV1.15B25,2013-06-17 20:39:00,
2013-06-17 15:40:00,95.6,73.9,29.85,ESE,118,2.0,7.0,50,0.00,,,0.00,WeatherCatV1.24B11,2013-06-17 20:40:00,
2013-06-17 15:44:00,95.7,73.4,29.85,South,180,3.0,7.0,49,0.00,,,0.00,WeatherCatV1.15B25,2013-06-17 20:44:00,
2013-06-17 15:45:00,95.6,73.9,29.84,SSE,153,2.0,0.0,50,0.00,,,0.00,WeatherCatV1.24B11,2013-06-17 20:45:00,
2013-06-17 15:49:00,95.6,73.3,29.85,ENE,72,1.0,5.0,49,0.00,,,0.00,WeatherCatV1.15B25,2013-06-17 20:49:00,
2013-06-17 15:50:00,95.6,73.3,29.84,SE,131,2.0,6.0,49,0.00,,,0.00,WeatherCatV1.24B11,2013-06-17 20:50:00,
2013-06-17 15:54:00,95.6,73.9,29.84,South,179,0.0,4.0,50,0.00,,,0.00,WeatherCatV1.15B25,2013-06-17 20:54:00,
2013-06-17 15:55:00,95.1,72.9,29.84,SE,144,1.0,2.0,49,0.00,,,0.00,WeatherCatV1.24B11,2013-06-17 20:55:00,
2013-06-17 15:59:00,95.6,73.3,29.84,ESE,123,2.0,2.0,49,0.00,,,0.00,WeatherCatV1.15B25,2013-06-17 20:59:00,
2013-06-17 16:00:00,94.9,73.3,29.84,ESE,114,1.0,3.0,50,0.00,,,0.00,WeatherCatV1.24B11,2013-06-17 21:00:00,
2013-06-17 16:04:00,95.2,73.6,29.84,East,100,0.0,4.0,50,0.00,,,0.00,WeatherCatV1.15B25,2013-06-17 21:04:00,
2013-06-17 16:05:00,94.9,72.7,29.84,SSE,147,1.0,2.0,49,0.00,,,0.00,WeatherCatV1.24B11,2013-06-17 21:05:00,
2013-06-17 16:09:00,94.9,73.3,29.84,ENE,72,0.0,3.0,50,0.00,,,0.00,WeatherCatV1.15B25,2013-06-17 21:09:00,
2013-06-17 16:10:00,94.9,73.3,29.83,SE,137,1.0,6.0,50,0.00,,,0.00,WeatherCatV1.24B11,2013-06-17 21:10:00,
2013-06-17 16:14:00,95.2,73.0,29.83,SSW,193,0.0,7.0,49,0.00,,,0.00,WeatherCatV1.15B25,2013-06-17 21:14:00,
2013-06-17 16:15:00,94.7,72.5,29.83,ESE,122,2.0,5.0,49,0.00,,,0.00,WeatherCatV1.24B11,2013-06-17 21:15:00,
2013-06-17 16:19:00,94.8,72.6,29.83,SSW,196,1.0,5.0,49,0.00,,,0.00,WeatherCatV1.15B25,2013-06-17 21:19:00,
2013-06-17 16:20:00,95.2,73.0,29.83,East,99,2.0,4.0,49,0.00,,,0.00,WeatherCatV1.24B11,2013-06-17 21:20:00,
2013-06-17 16:24:00,94.8,72.6,29.83,East,92,1.0,7.0,49,0.00,,,0.00,WeatherCatV1.15B25,2013-06-17 21:24:00,
2013-06-17 16:25:00,95.5,73.2,29.83,ESE,119,1.0,5.0,49,0.00,,,0.00,WeatherCatV1.24B11,2013-06-17 21:25:00,
2013-06-17 16:29:00,94.8,73.2,29.83,NE,46,1.0,8.0,50,0.00,,,0.00,WeatherCatV1.15B25,2013-06-17 21:29:00,
2013-06-17 16:30:00,95.9,73.6,29.83,SE,143,1.0,4.0,49,0.00,,,0.00,WeatherCatV1.24B11,2013-06-17 21:30:00,
2013-06-17 16:34:00,95.3,73.1,29.83,SE,130,0.0,1.0,49,0.00,,,0.00,WeatherCatV1.15B25,2013-06-17 21:34:00,
2013-06-17 16:35:00,96.2,73.9,29.83,SSE,167,1.0,5.0,49,0.00,,,0.00,WeatherCatV1.24B11,2013-06-17 21:35:00,
2013-06-17 16:39:00,95.6,72.7,29.83,SE,132,1.0,6.0,48,0.00,,,0.00,WeatherCatV1.15B25,2013-06-17 21:39:00,
2013-06-17 16:40:00,96.4,72.8,29.83,SSE,152,1.0,3.0,47,0.00,,,0.00,WeatherCatV1.24B11,2013-06-17 21:40:00,
2013-06-17 16:44:00,96.0,73.1,29.83,SSW,208,0.0,5.0,48,0.00,,,0.00,WeatherCatV1.15B25,2013-06-17 21:44:00,
2013-06-17 16:45:00,96.0,73.1,29.83,SE,140,1.0,3.0,48,0.00,,,0.00,WeatherCatV1.24B11,2013-06-17 21:45:00,
2013-06-17 16:49:00,96.4,73.4,29.83,SE,142,0.0,4.0,48,0.00,,,0.00,WeatherCatV1.15B25,2013-06-17 21:49:00,
2013-06-17 16:50:00,95.8,72.9,29.82,SSE,147,0.0,0.0,48,0.00,,,0.00,WeatherCatV1.24B11,2013-06-17 21:50:00,
2013-06-17 16:54:00,96.3,72.7,29.83,SE,136,0.0,3.0,47,0.00,,,0.00,WeatherCatV1.15B25,2013-06-17 21:54:00,
2013-06-17 16:55:00,95.6,73.3,29.82,ESE,121,0.0,0.0,49,0.00,,,0.00,WeatherCatV1.24B11,2013-06-17 21:55:00,
2013-06-17 16:59:00,95.9,73.0,29.83,SSE,150,0.0,1.0,48,0.00,,,0.00,WeatherCatV1.15B25,2013-06-17 21:59:00,
2013-06-17 17:00:00,96.0,72.5,29.82,SE,131,1.0,2.0,47,0.00,,,0.00,WeatherCatV1.24B11,2013-06-17 22:00:00,
2013-06-17 17:04:00,95.6,72.7,29.82,ESE,106,0.0,1.0,48,0.00,,,0.00,WeatherCatV1.15B25,2013-06-17 22:04:00,
2013-06-17 17:05:00,95.9,72.4,29.82,SSE,156,1.0,1.0,47,0.00,,,0.00,WeatherCatV1.24B11,2013-06-17 22:05:00,
2013-06-17 17:09:00,95.8,72.9,29.82,SE,134,0.0,4.0,48,0.00,,,0.00,WeatherCatV1.15B25,2013-06-17 22:09:00,
2013-06-17 17:10:00,95.8,72.3,29.82,South,179,1.0,0.0,47,0.00,,,0.00,WeatherCatV1.24B11,2013-06-17 22:10:00,
2013-06-17 17:14:00,95.9,71.7,29.82,SSE,155,4.0,5.0,46,0.00,,,0.00,WeatherCatV1.15B25,2013-06-17 22:14:00,
2013-06-17 17:15:00,95.4,71.9,29.81,South,177,1.0,0.0,47,0.00,,,0.00,WeatherCatV1.24B11,2013-06-17 22:15:00,
2013-06-17 17:19:00,95.8,72.3,29.82,SSW,192,0.0,2.0,47,0.00,,,0.00,WeatherCatV1.15B25,2013-06-17 22:19:00,
2013-06-17 17:20:00,95.2,72.4,29.81,South,185,0.0,2.0,48,0.00,,,0.00,WeatherCatV1.24B11,2013-06-17 22:20:00,
2013-06-17 17:24:00,95.5,71.4,29.81,SSW,192,0.0,7.0,46,0.00,,,0.00,WeatherCatV1.15B25,2013-06-17 22:24:00,
2013-06-17 17:25:00,95.3,71.8,29.81,SSE,156,1.0,2.0,47,0.00,,,0.00,WeatherCatV1.24B11,2013-06-17 22:25:00,
2013-06-17 17:29:00,95.2,72.4,29.81,South,187,0.0,0.0,48,0.00,,,0.00,WeatherCatV1.15B25,2013-06-17 22:29:00,
2013-06-17 17:30:00,95.6,71.5,29.81,SSE,161,1.0,2.0,46,0.00,,,0.00,WeatherCatV1.24B11,2013-06-17 22:30:00,
2013-06-17 17:34:00,95.3,71.8,29.81,SE,146,0.0,3.0,47,0.00,,,0.00,WeatherCatV1.15B25,2013-06-17 22:34:00,
2013-06-17 17:35:00,95.9,71.7,29.81,ESE,114,1.0,2.0,46,0.00,,,0.00,WeatherCatV1.24B11,2013-06-17 22:35:00,
2013-06-17 17:39:00,95.5,71.4,29.81,SSE,159,0.0,4.0,46,0.00,,,0.00,WeatherCatV1.15B25,2013-06-17 22:39:00,
2013-06-17 17:40:00,96.2,72.0,29.80,SSE,156,1.0,5.0,46,0.00,,,0.00,WeatherCatV1.24B11,2013-06-17 22:40:00,
2013-06-17 17:44:00,95.9,71.7,29.81,East,94,0.0,3.0,46,0.00,,,0.00,WeatherCatV1.15B25,2013-06-17 22:44:00,
2013-06-17 17:45:00,96.3,72.1,29.80,South,186,1.0,1.0,46,0.00,,,0.00,WeatherCatV1.24B11,2013-06-17 22:45:00,
2013-06-17 17:49:00,96.1,71.3,29.80,South,178,1.0,8.0,45,0.00,,,0.00,WeatherCatV1.15B25,2013-06-17 22:49:00,
2013-06-17 17:50:00,96.4,72.2,29.80,SSE,157,1.0,2.0,46,0.00,,,0.00,WeatherCatV1.24B11,2013-06-17 22:50:00,
2013-06-17 17:54:00,96.3,72.7,29.81,SSW,202,0.0,3.0,47,0.00,,,0.00,WeatherCatV1.15B25,2013-06-17 22:54:00,
2013-06-17 17:55:00,96.5,71.6,29.80,SE,146,0.0,5.0,45,0.00,,,0.00,WeatherCatV1.24B11,2013-06-17 22:55:00,
2013-06-17 17:59:00,96.4,72.2,29.80,SE,138,1.0,3.0,46,0.00,,,0.00,WeatherCatV1.15B25,2013-06-17 22:59:00,
2013-06-17 18:00:00,96.5,71.6,29.80,SSE,168,1.0,5.0,45,0.00,,,0.00,WeatherCatV1.24B11,2013-06-17 23:00:00,
2013-06-17 18:04:00,96.5,71.6,29.81,SE,138,0.0,1.0,45,0.00,,,0.00,WeatherCatV1.15B25,2013-06-17 23:04:00,
2013-06-17 18:05:00,96.4,71.5,29.80,SSE,168,1.0,3.0,45,0.00,,,0.00,WeatherCatV1.24B11,2013-06-17 23:05:00,
2013-06-17 18:09:00,96.5,71.0,29.80,South,190,0.0,4.0,44,0.00,,,0.00,WeatherCatV1.15B25,2013-06-17 23:09:00,
2013-06-17 18:10:00,96.5,72.3,29.80,South,169,1.0,0.0,46,0.00,,,0.00,WeatherCatV1.24B11,2013-06-17 23:10:00,
2013-06-17 18:14:00,96.5,71.6,29.80,SSE,168,0.0,3.0,45,0.00,,,0.00,WeatherCatV1.15B25,2013-06-17 23:14:00,
2013-06-17 18:15:00,96.5,72.9,29.80,SE,135,0.0,3.0,47,0.00,,,0.00,WeatherCatV1.24B11,2013-06-17 23:15:00,
2013-06-17 18:19:00,96.4,72.2,29.80,South,169,0.0,4.0,46,0.00,,,0.00,WeatherCatV1.15B25,2013-06-17 23:19:00,
2013-06-17 18:20:00,96.5,72.9,29.80,SSE,147,0.0,1.0,47,0.00,,,0.00,WeatherCatV1.24B11,2013-06-17 23:20:00,
2013-06-17 18:24:00,96.5,72.3,29.80,East,97,0.0,2.0,46,0.00,,,0.00,WeatherCatV1.15B25,2013-06-17 23:24:00,
2013-06-17 18:25:00,96.0,71.8,29.80,SE,143,1.0,1.0,46,0.00,,,0.00,WeatherCatV1.24B11,2013-06-17 23:25:00,
2013-06-17 18:29:00,96.5,72.9,29.80,SSE,163,0.0,1.0,47,0.00,,,0.00,WeatherCatV1.15B25,2013-06-17 23:29:00,
2013-06-17 18:30:00,95.6,72.1,29.79,SSE,165,1.0,3.0,47,0.00,,,0.00,WeatherCatV1.24B11,2013-06-17 23:30:00,
2013-06-17 18:34:00,96.4,71.5,29.80,SE,140,1.0,4.0,45,0.00,,,0.00,WeatherCatV1.15B25,2013-06-17 23:34:00,
2013-06-17 18:35:00,95.6,72.1,29.80,SSE,168,0.0,0.0,47,0.00,,,0.00,WeatherCatV1.24B11,2013-06-17 23:35:00,
2013-06-17 18:39:00,95.7,72.2,29.79,South,173,0.0,2.0,47,0.00,,,0.00,WeatherCatV1.15B25,2013-06-17 23:39:00,
2013-06-17 18:40:00,95.6,72.1,29.80,SSE,166,0.0,2.0,47,0.00,,,0.00,WeatherCatV1.24B11,2013-06-17 23:40:00,
2013-06-17 18:44:00,95.6,72.1,29.79,South,170,0.0,3.0,47,0.00,,,0.00,WeatherCatV1.15B25,2013-06-17 23:44:00,
2013-06-17 18:45:00,95.7,72.8,29.79,SSE,160,0.0,2.0,48,0.00,,,0.00,WeatherCatV1.24B11,2013-06-17 23:45:00,
2013-06-17 18:49:00,95.6,72.1,29.80,SSE,161,0.0,2.0,47,0.00,,,0.00,WeatherCatV1.15B25,2013-06-17 23:49:00,
2013-06-17 18:50:00,95.3,73.1,29.80,ESE,122,0.0,2.0,49,0.00,,,0.00,WeatherCatV1.24B11,2013-06-17 23:50:00,
2013-06-17 18:54:00,95.7,72.8,29.79,SSE,149,0.0,4.0,48,0.00,,,0.00,WeatherCatV1.15B25,2013-06-17 23:54:00,
2013-06-17 18:55:00,94.9,73.3,29.80,East,97,1.0,0.0,50,0.00,,,0.00,WeatherCatV1.24B11,2013-06-17 23:55:00,
2013-06-17 18:59:00,95.4,73.2,29.79,ESE,106,0.0,2.0,49,0.00,,,0.00,WeatherCatV1.15B25,2013-06-17 23:59:00,
2013-06-17 19:00:00,94.7,73.1,29.80,ESE,109,1.0,2.0,50,0.00,,,0.00,WeatherCatV1.24B11,2013-06-18 00:00:00,
2013-06-17 19:04:00,94.9,73.3,29.80,East,84,0.0,1.0,50,0.00,,,0.00,WeatherCatV1.15B25,2013-06-18 00:04:00,
2013-06-17 19:05:00,94.3,73.3,29.80,ESE,117,1.0,1.0,51,0.00,,,0.00,WeatherCatV1.24B11,2013-06-18 00:05:00,
2013-06-17 19:09:00,94.8,73.2,29.80,SSE,150,0.0,5.0,50,0.00,,,0.00,WeatherCatV1.15B25,2013-06-18 00:09:00,
2013-06-17 19:10:00,94.0,73.7,29.80,ESE,122,0.0,2.0,52,0.00,,,0.00,WeatherCatV1.24B11,2013-06-18 00:10:00,
2013-06-17 19:14:00,94.5,73.5,29.80,SE,140,0.0,3.0,51,0.00,,,0.00,WeatherCatV1.15B25,2013-06-18 00:14:00,
2013-06-17 19:15:00,93.9,74.1,29.80,SE,124,0.0,2.0,53,0.00,,,0.00,WeatherCatV1.24B11,2013-06-18 00:15:00,
2013-06-17 19:19:00,94.2,73.2,29.80,ESE,120,0.0,4.0,51,0.00,,,0.00,WeatherCatV1.15B25,2013-06-18 00:19:00,
2013-06-17 19:20:00,93.9,74.1,29.80,SE,125,0.0,1.0,53,0.00,,,0.00,WeatherCatV1.24B11,2013-06-18 00:20:00,
2013-06-17 19:24:00,93.9,73.6,29.80,SE,125,0.0,1.0,52,0.00,,,0.00,WeatherCatV1.15B25,2013-06-18 00:24:00,
2013-06-17 19:25:00,93.4,73.7,29.80,ESE,119,1.0,8.0,53,0.00,,,0.00,WeatherCatV1.24B11,2013-06-18 00:25:00,
2013-06-17 19:29:00,93.9,73.6,29.80,SE,127,0.0,2.0,52,0.00,,,0.00,WeatherCatV1.15B25,2013-06-18 00:29:00,
2013-06-17 19:30:00,92.9,73.8,29.80,SSE,148,2.0,2.0,54,0.00,,,0.00,WeatherCatV1.24B11,2013-06-18 00:30:00,
2013-06-17 19:34:00,93.8,74.0,29.80,ESE,109,0.0,2.0,53,0.00,,,0.00,WeatherCatV1.15B25,2013-06-18 00:34:00,
2013-06-17 19:35:00,92.4,73.8,29.80,SE,143,2.0,5.0,55,0.00,,,0.00,WeatherCatV1.24B11,2013-06-18 00:35:00,
2013-06-17 19:39:00,93.1,73.9,29.80,South,176,0.0,6.0,54,0.00,,,0.00,WeatherCatV1.15B25,2013-06-18 00:39:00,
2013-06-17 19:40:00,92.0,74.0,29.80,SE,128,2.0,2.0,56,0.00,,,0.00,WeatherCatV1.24B11,2013-06-18 00:40:00,
2013-06-17 19:44:00,92.7,73.6,29.80,ESE,110,0.0,6.0,54,0.00,,,0.00,WeatherCatV1.15B25,2013-06-18 00:44:00,
2013-06-17 19:45:00,91.7,73.7,29.80,SE,139,1.0,0.0,56,0.00,,,0.00,WeatherCatV1.24B11,2013-06-18 00:45:00,
2013-06-17 19:49:00,92.2,73.7,29.80,ESE,117,3.0,5.0,55,0.00,,,0.00,WeatherCatV1.15B25,2013-06-18 00:49:00,
2013-06-17 19:50:00,91.3,73.9,29.80,SE,129,1.0,0.0,57,0.00,,,0.00,WeatherCatV1.24B11,2013-06-18 00:50:00,
2013-06-17 19:54:00,91.8,73.8,29.80,SE,131,0.0,4.0,56,0.00,,,0.00,WeatherCatV1.15B25,2013-06-18 00:54:00,
2013-06-17 19:55:00,90.8,73.9,29.80,SE,137,1.0,0.0,58,0.00,,,0.00,WeatherCatV1.24B11,2013-06-18 00:55:00,
2013-06-17 19:59:00,91.5,74.1,29.80,SE,130,0.0,7.0,57,0.00,,,0.00,WeatherCatV1.15B25,2013-06-18 00:59:00,
2013-06-17 20:00:00,90.3,74.0,29.81,SE,146,0.0,7.0,59,0.00,,,0.00,WeatherCatV1.24B11,2013-06-18 01:00:00,
2013-06-17 20:04:00,91.0,73.6,29.80,South,173,2.0,4.0,57,0.00,,,0.00,WeatherCatV1.15B25,2013-06-18 01:04:00,
2013-06-17 20:05:00,89.7,74.9,29.81,SE,134,1.0,4.0,62,0.00,,,0.00,WeatherCatV1.24B11,2013-06-18 01:05:00,
2013-06-17 20:09:00,90.5,73.7,29.80,SSE,153,0.0,1.0,58,0.00,,,0.00,WeatherCatV1.15B25,2013-06-18 01:09:00,
2013-06-17 20:10:00,89.1,74.8,29.81,SE,129,1.0,6.0,63,0.00,,,0.00,WeatherCatV1.24B11,2013-06-18 01:10:00,
2013-06-17 20:14:00,90.0,74.2,29.81,SE,138,0.0,10.0,60,0.00,,,0.00,WeatherCatV1.15B25,2013-06-18 01:14:00,
2013-06-17 20:15:00,88.8,75.0,29.82,SE,125,1.0,4.0,64,0.00,,,0.00,WeatherCatV1.24B11,2013-06-18 01:15:00,
2013-06-17 20:19:00,89.4,75.1,29.81,ESE,117,0.0,1.0,63,0.00,,,0.00,WeatherCatV1.15B25,2013-06-18 01:19:00,
2013-06-17 20:20:00,88.2,75.4,29.82,SE,128,1.0,5.0,66,0.00,,,0.00,WeatherCatV1.24B11,2013-06-18 01:20:00,
2013-06-17 20:24:00,88.9,75.1,29.81,SE,140,1.0,5.0,64,0.00,,,0.00,WeatherCatV1.15B25,2013-06-18 01:24:00,
2013-06-17 20:25:00,87.8,75.4,29.82,ESE,121,1.0,6.0,67,0.00,,,0.00,WeatherCatV1.24B11,2013-06-18 01:25:00,
2013-06-17 20:29:00,88.4,75.1,29.82,SSE,161,0.0,4.0,65,0.00,,,0.00,WeatherCatV1.15B25,2013-06-18 01:29:00,
2013-06-17 20:30:00,87.4,75.5,29.82,SE,125,1.0,5.0,68,0.00,,,0.00,WeatherCatV1.24B11,2013-06-18 01:30:00,
2013-06-17 20:34:00,88.0,75.2,29.82,ESE,107,3.0,4.0,66,0.00,,,0.00,WeatherCatV1.15B25,2013-06-18 01:34:00,
2013-06-17 20:35:00,87.1,75.7,29.82,SE,141,1.0,6.0,69,0.00,,,0.00,WeatherCatV1.24B11,2013-06-18 01:35:00,
2013-06-17 20:39:00,87.6,75.3,29.82,SSE,157,0.0,4.0,67,0.00,,,0.00,WeatherCatV1.15B25,2013-06-18 01:39:00,
2013-06-17 20:40:00,86.8,75.4,29.82,SE,129,1.0,3.0,69,0.00,,,0.00,WeatherCatV1.24B11,2013-06-18 01:40:00,
2013-06-17 20:44:00,87.2,75.3,29.82,SE,146,0.0,5.0,68,0.00,,,0.00,WeatherCatV1.15B25,2013-06-18 01:44:00,
2013-06-17 20:45:00,86.5,75.5,29.82,ESE,118,1.0,1.0,70,0.00,,,0.00,WeatherCatV1.24B11,2013-06-18 01:45:00,
2013-06-17 20:49:00,86.9,75.5,29.82,ESE,123,1.0,4.0,69,0.00,,,0.00,WeatherCatV1.15B25,2013-06-18 01:49:00,
2013-06-17 20:50:00,86.1,75.6,29.82,ESE,117,1.0,2.0,71,0.00,,,0.00,WeatherCatV1.24B11,2013-06-18 01:50:00,
2013-06-17 20:54:00,86.6,75.6,29.82,ESE,114,3.0,3.0,70,0.00,,,0.00,WeatherCatV1.15B25,2013-06-18 01:54:00,
2013-06-17 20:55:00,85.9,75.4,29.83,SE,126,1.0,4.0,71,0.00,,,0.00,WeatherCatV1.24B11,2013-06-18 01:55:00,
2013-06-17 20:59:00,86.3,75.3,29.82,East,84,2.0,6.0,70,0.00,,,0.00,WeatherCatV1.15B25,2013-06-18 01:59:00,
2013-06-17 21:00:00,85.6,75.5,29.83,SE,133,2.0,7.0,72,0.00,,,0.00,WeatherCatV1.24B11,2013-06-18 02:00:00,
2013-06-17 21:04:00,86.0,75.5,29.82,SSE,148,0.0,3.0,71,0.00,,,0.00,WeatherCatV1.15B25,2013-06-18 02:04:00,
2013-06-17 21:05:00,85.4,75.3,29.83,SE,131,2.0,4.0,72,0.00,,,0.00,WeatherCatV1.24B11,2013-06-18 02:05:00,
2013-06-17 21:09:00,85.7,75.6,29.83,SE,145,0.0,9.0,72,0.00,,,0.00,WeatherCatV1.15B25,2013-06-18 02:09:00,
2013-06-17 21:10:00,85.2,75.5,29.83,ESE,120,2.0,3.0,73,0.00,,,0.00,WeatherCatV1.24B11,2013-06-18 02:10:00,
2013-06-17 21:14:00,85.5,75.4,29.83,ESE,113,1.0,8.0,72,0.00,,,0.00,WeatherCatV1.15B25,2013-06-18 02:14:00,
2013-06-17 21:15:00,85.0,75.3,29.83,ESE,115,1.0,0.0,73,0.00,,,0.00,WeatherCatV1.24B11,2013-06-18 02:15:00,
2013-06-17 21:19:00,85.3,75.6,29.83,ESE,113,0.0,11.0,73,0.00,,,0.00,WeatherCatV1.15B25,2013-06-18 02:19:00,
2013-06-17 21:20:00,84.8,75.6,29.83,ESE,113,1.0,2.0,74,0.00,,,0.00,WeatherCatV1.24B11,2013-06-18 02:20:00,
2013-06-17 21:24:00,85.1,75.4,29.83,East,86,3.0,4.0,73,0.00,,,0.00,WeatherCatV1.15B25,2013-06-18 02:24:00,
2013-06-17 21:25:00,84.6,75.4,29.84,SE,126,1.0,8.0,74,0.00,,,0.00,WeatherCatV1.24B11,2013-06-18 02:25:00,
2013-06-17 21:29:00,84.9,75.3,29.83,ESE,105,3.0,5.0,73,0.00,,,0.00,WeatherCatV1.15B25,2013-06-18 02:29:00,
2013-06-17 21:30:00,84.4,75.2,29.84,SE,128,1.0,2.0,74,0.00,,,0.00,WeatherCatV1.24B11,2013-06-18 02:30:00,
2013-06-17 21:34:00,84.7,75.5,29.84,ESE,121,0.0,0.0,74,0.00,,,0.00,WeatherCatV1.15B25,2013-06-18 02:34:00,
2013-06-17 21:35:00,84.2,75.0,29.84,SE,129,1.0,3.0,74,0.00,,,0.00,WeatherCatV1.24B11,2013-06-18 02:35:00,
2013-06-17 21:39:00,84.5,75.3,29.84,South,170,0.0,4.0,74,0.00,,,0.00,WeatherCatV1.15B25,2013-06-18 02:39:00,
2013-06-17 21:40:00,84.0,75.2,29.85,SE,132,1.0,1.0,75,0.00,,,0.00,WeatherCatV1.24B11,2013-06-18 02:40:00,
2013-06-17 21:44:00,84.3,75.1,29.84,SE,130,0.0,4.0,74,0.00,,,0.00,WeatherCatV1.15B25,2013-06-18 02:44:00,
2013-06-17 21:45:00,83.8,75.0,29.85,ESE,117,0.0,2.0,75,0.00,,,0.00,WeatherCatV1.24B11,2013-06-18 02:45:00,
2013-06-17 21:49:00,84.1,74.9,29.84,SE,133,1.0,2.0,74,0.00,,,0.00,WeatherCatV1.15B25,2013-06-18 02:49:00,
2013-06-17 21:50:00,83.6,74.8,29.85,ESE,117,1.0,1.0,75,0.00,,,0.00,WeatherCatV1.24B11,2013-06-18 02:50:00,
2013-06-17 21:54:00,83.9,75.1,29.85,ESE,107,0.0,4.0,75,0.00,,,0.00,WeatherCatV1.15B25,2013-06-18 02:54:00,
2013-06-17 21:55:00,83.5,74.7,29.85,SE,126,1.0,6.0,75,0.00,,,0.00,WeatherCatV1.24B11,2013-06-18 02:55:00,
2013-06-17 21:59:00,83.7,74.9,29.85,ESE,117,0.0,1.0,75,0.00,,,0.00,WeatherCatV1.15B25,2013-06-18 02:59:00,
2013-06-17 22:00:00,83.4,75.0,29.86,ESE,103,1.0,1.0,76,0.00,,,0.00,WeatherCatV1.24B11,2013-06-18 03:00:00,
2013-06-17 22:04:00,83.6,74.8,29.85,SE,140,0.0,5.0,75,0.00,,,0.00,WeatherCatV1.15B25,2013-06-18 03:04:00,
2013-06-17 22:05:00,83.2,74.8,29.86,East,101,1.0,1.0,76,0.00,,,0.00,WeatherCatV1.24B11,2013-06-18 03:05:00,
2013-06-17 22:09:00,83.4,74.6,29.86,East,98,2.0,5.0,75,0.00,,,0.00,WeatherCatV1.15B25,2013-06-18 03:09:00,
2013-06-17 22:10:00,83.0,74.6,29.86,ESE,102,0.0,2.0,76,0.00,,,0.00,WeatherCatV1.24B11,2013-06-18 03:10:00,
2013-06-17 22:14:00,83.2,74.8,29.86,East,98,0.0,6.0,76,0.00,,,0.00,WeatherCatV1.15B25,2013-06-18 03:14:00,
2013-06-17 22:15:00,82.8,74.8,29.87,SE,131,0.0,1.0,77,0.00,,,0.00,WeatherCatV1.24B11,2013-06-18 03:15:00,
2013-06-17 22:19:00,83.1,74.7,29.86,ESE,103,0.0,2.0,76,0.00,,,0.00,WeatherCatV1.15B25,2013-06-18 03:19:00,
2013-06-17 22:20:00,82.7,74.7,29.87,SE,131,1.0,2.0,77,0.00,,,0.00,WeatherCatV1.24B11,2013-06-18 03:20:00,
2013-06-17 22:24:00,82.9,74.9,29.86,SSE,153,0.0,1.0,77,0.00,,,0.00,WeatherCatV1.15B25,2013-06-18 03:24:00,
2013-06-17 22:25:00,82.6,75.0,29.87,SE,127,1.0,5.0,78,0.00,,,0.00,WeatherCatV1.24B11,2013-06-18 03:25:00,
2013-06-17 22:29:00,82.7,74.7,29.87,SSE,160,2.0,5.0,77,0.00,,,0.00,WeatherCatV1.15B25,2013-06-18 03:29:00,
2013-06-17 22:30:00,82.4,74.8,29.87,SE,130,1.0,1.0,78,0.00,,,0.00,WeatherCatV1.24B11,2013-06-18 03:30:00,
2013-06-17 22:34:00,82.6,74.6,29.87,SSE,150,5.0,5.0,77,0.00,,,0.00,WeatherCatV1.15B25,2013-06-18 03:34:00,
2013-06-17 22:35:00,82.2,74.6,29.87,SE,132,1.0,4.0,78,0.00,,,0.00,WeatherCatV1.24B11,2013-06-18 03:35:00,
2013-06-17 22:39:00,82.5,74.9,29.87,SE,127,1.0,3.0,78,0.00,,,0.00,WeatherCatV1.15B25,2013-06-18 03:39:00,
2013-06-17 22:40:00,82.0,74.8,29.87,ESE,117,1.0,4.0,79,0.00,,,0.00,WeatherCatV1.24B11,2013-06-18 03:40:00,
2013-06-17 22:44:00,82.2,74.6,29.87,ESE,119,0.0,4.0,78,0.00,,,0.00,WeatherCatV1.15B25,2013-06-18 03:44:00,
2013-06-17 22:45:00,81.8,74.6,29.87,ESE,115,1.0,4.0,79,0.00,,,0.00,WeatherCatV1.24B11,2013-06-18 03:45:00,
2013-06-17 22:49:00,82.1,74.5,29.87,ESE,117,0.0,4.0,78,0.00,,,0.00,WeatherCatV1.15B25,2013-06-18 03:49:00,
2013-06-17 22:50:00,81.6,74.4,29.88,ESE,114,1.0,4.0,79,0.00,,,0.00,WeatherCatV1.24B11,2013-06-18 03:50:00,
2013-06-17 22:54:00,81.9,74.7,29.87,ESE,109,0.0,2.0,79,0.00,,,0.00,WeatherCatV1.15B25,2013-06-18 03:54:00,
2013-06-17 22:55:00,81.4,74.2,29.87,ESE,111,1.0,1.0,79,0.00,,,0.00,WeatherCatV1.24B11,2013-06-18 03:55:00,
2013-06-17 22:59:00,81.7,74.5,29.88,SE,124,0.0,5.0,79,0.00,,,0.00,WeatherCatV1.15B25,2013-06-18 03:59:00,
2013-06-17 23:00:00,81.2,74.1,29.88,ESE,104,0.0,4.0,79,0.00,,,0.00,WeatherCatV1.24B11,2013-06-18 04:00:00,
2013-06-17 23:01:00,81.6,74.4,29.87,ESE,119,0.0,2.0,79,0.00,,,0.00,WeatherCatV1.15B25,2013-06-18 04:01:00,
2013-06-17 23:05:00,81.0,74.2,29.88,ESE,120,0.0,0.0,80,0.00,,,0.00,WeatherCatV1.24B11,2013-06-18 04:05:00,
2013-06-17 23:06:00,81.4,74.2,29.88,ESE,104,0.0,6.0,79,0.00,,,0.00,WeatherCatV1.15B25,2013-06-18 04:06:00,
2013-06-17 23:10:00,80.9,74.1,29.89,SE,126,1.0,0.0,80,0.00,,,0.00,WeatherCatV1.24B11,2013-06-18 04:10:00,
2013-06-17 23:11:00,81.3,74.1,29.88,East,101,2.0,3.0,79,0.00,,,0.00,WeatherCatV1.15B25,2013-06-18 04:11:00,
2013-06-17 23:15:00,80.7,73.9,29.89,ESE,112,0.0,1.0,80,0.00,,,0.00,WeatherCatV1.24B11,2013-06-18 04:15:00,
2013-06-17 23:16:00,81.1,74.3,29.88,SE,131,0.0,3.0,80,0.00,,,0.00,WeatherCatV1.15B25,2013-06-18 04:16:00,
2013-06-17 23:20:00,80.5,74.1,29.89,ESE,105,0.0,5.0,81,0.00,,,0.00,WeatherCatV1.24B11,2013-06-18 04:20:00,
2013-06-17 23:21:00,80.9,74.1,29.89,SE,126,0.0,4.0,80,0.00,,,0.00,WeatherCatV1.15B25,2013-06-18 04:21:00,
2013-06-17 23:25:00,80.3,73.9,29.89,ESE,102,0.0,2.0,81,0.00,,,0.00,WeatherCatV1.24B11,2013-06-18 04:25:00,
2013-06-17 23:26:00,80.7,73.9,29.89,ESE,103,1.0,4.0,80,0.00,,,0.00,WeatherCatV1.15B25,2013-06-18 04:26:00,
2013-06-17 23:30:00,80.2,73.8,29.89,ESE,119,0.0,1.0,81,0.00,,,0.00,WeatherCatV1.24B11,2013-06-18 04:30:00,
2013-06-17 23:31:00,80.6,73.8,29.89,ESE,102,0.0,3.0,80,0.00,,,0.00,WeatherCatV1.15B25,2013-06-18 04:31:00,
2013-06-17 23:35:00,80.0,73.6,29.90,ESE,119,0.0,3.0,81,0.00,,,0.00,WeatherCatV1.24B11,2013-06-18 04:35:00,
2013-06-17 23:36:00,80.4,74.0,29.89,East,100,2.0,2.0,81,0.00,,,0.00,WeatherCatV1.15B25,2013-06-18 04:36:00,
2013-06-17 23:40:00,79.8,73.4,29.90,ESE,114,1.0,2.0,81,0.00,,,0.00,WeatherCatV1.24B11,2013-06-18 04:40:00,
2013-06-17 23:41:00,80.2,73.8,29.89,SE,128,0.0,0.0,81,0.00,,,0.00,WeatherCatV1.15B25,2013-06-18 04:41:00,
2013-06-17 23:45:00,79.7,73.3,29.90,ESE,115,1.0,1.0,81,0.00,,,0.00,WeatherCatV1.24B11,2013-06-18 04:45:00,
2013-06-17 23:46:00,80.0,73.6,29.90,ESE,117,3.0,3.0,81,0.00,,,0.00,WeatherCatV1.15B25,2013-06-18 04:46:00,
2013-06-17 23:50:00,79.6,73.2,29.90,ESE,105,1.0,3.0,81,0.00,,,0.00,WeatherCatV1.24B11,2013-06-18 04:50:00,
2013-06-17 23:51:00,79.8,73.4,29.89,ESE,103,0.0,3.0,81,0.00,,,0.00,WeatherCatV1.15B25,2013-06-18 04:51:00,
2013-06-17 23:55:00,79.4,73.0,29.89,ESE,116,2.0,5.0,81,0.00,,,0.00,WeatherCatV1.24B11,2013-06-18 04:55:00,
2013-06-17 23:56:00,79.7,73.3,29.90,ESE,115,0.0,5.0,81,0.00,,,0.00,WeatherCatV1.15B25,2013-06-18 04:56:00,